Time,TemperatureF,DewpointF,PressureIn,WindDirection,WindDirectionDegrees,WindSpeedMPH,WindSpeedGustMPH,Humidity,HourlyPrecipIn,Conditions,Clouds,dailyrainin,SoftwareType,DateUTC
2013-06-04 00:00:00,75.6,75.6,29.92,South,176,0.0,12.2,100,0.01,,SKC,0.01,VWS V14.01,2013-06-04 04:00:00,
2013-06-04 00:04:00,75.9,75.9,29.91,South,176,0.0,12.2,100,0.01,,SKC,0.01,VWS V14.01,2013-06-04 04:04:00,
2013-06-04 00:05:00,76.1,76.1,29.91,South,176,0.0,12.2,100,0.01,,SKC,0.01,VWS V14.01,2013-06-04 04:05:00,
2013-06-04 00:09:00,77.0,77.0,29.91,SSW,198,2.7,12.2,100,0.01,,SKC,0.01,VWS V14.01,2013-06-04 04:09:00,
2013-06-04 00:10:00,77.1,77.1,29.91,SSW,211,3.9,12.2,100,0.01,,SKC,0.01,VWS V14.01,2013-06-04 04:10:00,
2013-06-04 00:11:00,77.3,77.3,29.91,SSW,211,0.0,12.2,100,0.01,,SKC,0.01,VWS V14.01,2013-06-04 04:11:00,
2013-06-04 00:14:00,78.3,78.3,29.91,SW,229,0.0,12.2,100,0.01,,SKC,0.01,VWS V14.01,2013-06-04 04:14:00,
2013-06-04 00:15:00,78.2,78.2,29.91,SW,229,0.0,12.2,100,0.01,,SKC,0.01,VWS V14.01,2013-06-04 04:15:00,
2013-06-04 00:16:00,78.4,78.4,29.91,SW,236,0.0,12.2,100,0.01,,SKC,0.01,VWS V14.01,2013-06-04 04:16:00,
2013-06-04 00:20:00,79.1,79.1,29.91,SW,215,4.7,12.2,100,0.01,,SKC,0.01,VWS V14.01,2013-06-04 04:20:00,
2013-06-04 00:21:00,79.2,79.2,29.91,SW,215,0.0,12.2,100,0.01,,SKC,0.01,VWS V14.01,2013-06-04 04:21:00,
2013-06-04 00:25:00,79.4,79.4,29.91,SW,231,0.0,12.2,100,0.01,,SKC,0.01,VWS V14.01,2013-06-04 04:25:00,
2013-06-04 00:26:00,79.5,79.5,29.91,SW,225,0.0,12.2,100,0.01,,SKC,0.01,VWS V14.01,2013-06-04 04:26:00,
2013-06-04 00:30:00,79.7,79.7,29.91,SW,225,0.0,12.2,100,0.01,,SKC,0.01,VWS V14.01,2013-06-04 04:30:00,
2013-06-04 00:31:00,79.7,79.7,29.91,SSW,205,0.2,12.2,100,0.01,,SKC,0.01,VWS V14.01,2013-06-04 04:31:00,
2013-06-04 00:35:00,79.8,79.8,29.91,WSW,240,0.0,12.2,100,0.01,,SKC,0.01,VWS V14.01,2013-06-04 04:35:00,
2013-06-04 00:36:00,79.8,79.9,29.91,WSW,240,0.0,12.2,100,0.01,,SKC,0.01,VWS V14.01,2013-06-04 04:36:00,
2013-06-04 00:40:00,79.9,79.9,29.91,WSW,240,0.0,12.2,100,0.01,,SKC,0.01,VWS V14.01,2013-06-04 04:40:00,
2013-06-04 00:41:00,79.9,79.9,29.91,WSW,240,0.0,12.2,100,0.01,,SKC,0.01,VWS V14.01,2013-06-04 04:41:00,
2013-06-04 00:46:00,80.0,80.0,29.92,North,359,0.0,12.2,100,0.01,,SKC,0.01,VWS V14.01,2013-06-04 04:46:00,
2013-06-04 00:51:00,80.1,80.1,29.91,SW,222,0.3,12.2,100,0.01,,SKC,0.01,VWS V14.01,2013-06-04 04:51:00,
2013-06-04 00:52:00,80.1,80.1,29.91,SW,222,0.0,12.2,100,0.01,,SKC,0.01,VWS V14.01,2013-06-04 04:52:00,
2013-06-04 00:56:00,80.1,80.1,29.91,SSW,194,0.0,12.2,100,0.01,,SKC,0.01,VWS V14.01,2013-06-04 04:56:00,
2013-06-04 00:57:00,80.1,80.1,29.91,SSW,194,0.0,12.2,100,0.01,,SKC,0.01,VWS V14.01,2013-06-04 04:57:00,
2013-06-04 01:00:00,79.4,79.4,29.91,North,359,0.0,0.0,100,0.00,,SKC,0.00,VWS V14.01,2013-06-04 05:00:00,
2013-06-04 01:01:00,79.4,79.4,29.91,North,359,0.0,0.0,100,0.00,,SKC,0.00,VWS V14.01,2013-06-04 05:01:00,
2013-06-04 01:02:00,80.0,80.0,29.91,SSW,200,7.9,7.9,100,0.00,,SKC,0.01,VWS V14.01,2013-06-04 05:02:00,
2013-06-04 01:03:00,79.3,79.3,29.91,SW,222,0.0,6.8,100,0.00,,SKC,0.00,VWS V14.01,2013-06-04 05:03:00,
2013-06-04 01:04:00,79.3,79.3,29.91,SW,222,0.0,6.8,100,0.00,,SKC,0.00,VWS V14.01,2013-06-04 05:04:00,
2013-06-04 01:07:00,79.8,79.8,29.91,North,359,0.0,5.7,100,0.00,,SKC,0.01,VWS V14.01,2013-06-04 05:07:00,
2013-06-04 01:12:00,79.7,79.7,29.91,SSW,202,9.2,9.2,100,0.00,,SKC,0.01,VWS V14.01,2013-06-04 05:12:00,
2013-06-04 01:13:00,79.5,79.4,29.91,SSW,200,0.0,0.0,100,0.00,,SKC,0.01,VWS V14.01,2013-06-04 05:13:00,
2013-06-04 01:17:00,79.4,79.4,29.91,SSW,205,0.0,7.1,100,0.00,,SKC,0.01,VWS V14.01,2013-06-04 05:17:00,
2013-06-04 01:18:00,79.5,79.5,29.91,SSW,205,0.0,0.0,100,0.00,,SKC,0.01,VWS V14.01,2013-06-04 05:18:00,
2013-06-04 01:22:00,79.5,79.5,29.91,North,359,0.0,0.0,100,0.00,,SKC,0.01,VWS V14.01,2013-06-04 05:22:00,
2013-06-04 01:23:00,79.4,79.4,29.91,South,179,0.0,0.2,100,0.00,,SKC,0.01,VWS V14.01,2013-06-04 05:23:00,
2013-06-04 01:27:00,79.4,79.4,29.91,South,179,0.0,0.0,100,0.00,,SKC,0.01,VWS V14.01,2013-06-04 05:27:00,
2013-06-04 01:28:00,79.4,79.4,29.91,South,179,0.0,0.0,100,0.00,,SKC,0.01,VWS V14.01,2013-06-04 05:28:00,
2013-06-04 01:32:00,79.4,79.4,29.90,North,359,0.0,0.0,100,0.00,,SKC,0.01,VWS V14.01,2013-06-04 05:32:00,
2013-06-04 01:33:00,79.5,79.5,29.90,North,359,0.0,0.0,100,0.00,,SKC,0.01,VWS V14.01,2013-06-04 05:33:00,
2013-06-04 01:37:00,79.4,79.4,29.91,North,359,0.0,0.0,100,0.00,,SKC,0.01,VWS V14.01,2013-06-04 05:37:00,
2013-06-04 01:38:00,79.4,79.4,29.91,North,359,0.0,0.0,100,0.00,,SKC,0.01,VWS V14.01,2013-06-04 05:38:00,
2013-06-04 01:42:00,79.5,79.5,29.91,North,359,0.0,0.0,100,0.00,,SKC,0.01,VWS V14.01,2013-06-04 05:42:00,
2013-06-04 01:43:00,79.4,79.4,29.90,North,359,0.0,0.0,100,0.00,,SKC,0.01,VWS V14.01,2013-06-04 05:43:00,
2013-06-04 01:47:00,79.4,79.4,29.91,North,359,0.0,0.0,100,0.00,,SKC,0.01,VWS V14.01,2013-06-04 05:47:00,
2013-06-04 01:48:00,79.4,79.4,29.91,North,359,0.0,0.0,100,0.00,,SKC,0.01,VWS V14.01,2013-06-04 05:48:00,
2013-06-04 01:52:00,79.4,79.4,29.91,North,359,0.0,0.0,100,0.00,,SKC,0.01,VWS V14.01,2013-06-04 05:52:00,
2013-06-04 01:53:00,79.5,79.5,29.91,North,359,0.0,0.0,100,0.00,,SKC,0.01,VWS V14.01,2013-06-04 05:53:00,
2013-06-04 01:59:00,79.3,79.3,29.91,SW,222,0.0,6.8,100,0.00,,SKC,0.00,VWS V14.01,2013-06-04 05:59:00,
2013-06-04 02:00:00,79.4,79.4,29.91,SW,222,0.0,6.8,100,0.00,,SKC,0.00,VWS V14.01,2013-06-04 06:00:00,
2013-06-04 02:02:00,79.4,79.4,29.91,SW,222,0.0,6.8,100,0.00,,SKC,0.00,VWS V14.01,2013-06-04 06:02:00,
2013-06-04 02:05:00,79.4,79.4,29.91,SW,222,0.0,6.8,100,0.00,,SKC,0.00,VWS V14.01,2013-06-04 06:05:00,
2013-06-04 02:07:00,79.4,79.4,29.91,SW,222,0.0,6.8,100,0.00,,SKC,0.00,VWS V14.01,2013-06-04 06:07:00,
2013-06-04 02:10:00,79.4,79.4,29.90,SW,222,0.0,6.8,100,0.00,,SKC,0.00,VWS V14.01,2013-06-04 06:10:00,
2013-06-04 02:12:00,79.4,79.4,29.90,SW,222,0.0,6.8,100,0.00,,SKC,0.00,VWS V14.01,2013-06-04 06:12:00,
2013-06-04 02:15:00,79.4,79.4,29.90,SW,222,0.0,6.8,100,0.00,,SKC,0.00,VWS V14.01,2013-06-04 06:15:00,
2013-06-04 02:16:00,79.5,79.5,29.90,SW,222,0.0,6.8,100,0.00,,SKC,0.00,VWS V14.01,2013-06-04 06:16:00,
2013-06-04 02:17:00,79.4,79.4,29.90,SW,222,0.0,6.8,100,0.00,,SKC,0.00,VWS V14.01,2013-06-04 06:17:00,
2013-06-04 02:20:00,79.4,79.4,29.90,SW,222,0.0,6.8,100,0.00,,SKC,0.00,VWS V14.01,2013-06-04 06:20:00,
2013-06-04 02:21:00,79.5,79.5,29.90,SW,222,0.0,6.8,100,0.00,,SKC,0.00,VWS V14.01,2013-06-04 06:21:00,
2013-06-04 02:22:00,79.4,79.4,29.90,SW,222,0.0,6.8,100,0.00,,SKC,0.00,VWS V14.01,2013-06-04 06:22:00,
2013-06-04 02:23:00,79.4,79.4,29.90,SW,222,0.0,6.8,100,0.00,,SKC,0.00,VWS V14.01,2013-06-04 06:23:00,
2013-06-04 02:25:00,79.4,79.4,29.90,SW,222,0.0,6.8,100,0.00,,SKC,0.00,VWS V14.01,2013-06-04 06:25:00,
2013-06-04 02:26:00,79.3,79.3,29.90,SW,222,0.0,6.8,100,0.00,,SKC,0.00,VWS V14.01,2013-06-04 06:26:00,
2013-06-04 02:27:00,79.4,79.4,29.90,SW,222,0.0,6.8,100,0.00,,SKC,0.00,VWS V14.01,2013-06-04 06:27:00,
2013-06-04 02:28:00,79.3,79.4,29.90,SW,222,0.0,6.8,100,0.00,,SKC,0.00,VWS V14.01,2013-06-04 06:28:00,
2013-06-04 02:30:00,79.3,79.3,29.90,SW,222,0.0,6.8,100,0.00,,SKC,0.00,VWS V14.01,2013-06-04 06:30:00,
2013-06-04 02:31:00,79.4,79.4,29.90,SW,222,0.0,6.8,100,0.00,,SKC,0.00,VWS V14.01,2013-06-04 06:31:00,
2013-06-04 02:32:00,79.4,79.4,29.90,SW,222,0.0,6.8,100,0.00,,SKC,0.00,VWS V14.01,2013-06-04 06:32:00,
2013-06-04 02:33:00,79.3,79.3,29.90,SW,222,0.0,6.8,100,0.00,,SKC,0.00,VWS V14.01,2013-06-04 06:33:00,
2013-06-04 02:35:00,79.3,79.3,29.90,SW,222,0.0,6.8,100,0.00,,SKC,0.00,VWS V14.01,2013-06-04 06:35:00,
2013-06-04 02:36:00,79.3,79.3,29.90,SW,222,0.0,6.8,100,0.00,,SKC,0.00,VWS V14.01,2013-06-04 06:36:00,
2013-06-04 02:37:00,79.3,79.3,29.90,SW,222,0.0,6.8,100,0.00,,SKC,0.00,VWS V14.01,2013-06-04 06:37:00,
2013-06-04 02:38:00,79.3,79.3,29.90,SW,222,0.0,6.8,100,0.00,,SKC,0.00,VWS V14.01,2013-06-04 06:38:00,
2013-06-04 02:39:00,79.4,79.3,29.90,SW,222,0.0,6.8,100,0.00,,SKC,0.00,VWS V14.01,2013-06-04 06:39:00,
2013-06-04 02:40:00,79.4,79.4,29.90,SW,222,0.0,6.8,100,0.00,,SKC,0.00,VWS V14.01,2013-06-04 06:40:00,
2013-06-04 02:41:00,79.3,79.3,29.90,North,359,1.8,6.8,100,0.00,,SKC,0.00,VWS V14.01,2013-06-04 06:41:00,
2013-06-04 02:42:00,79.3,79.3,29.90,North,359,0.0,6.8,100,0.00,,SKC,0.00,VWS V14.01,2013-06-04 06:42:00,
2013-06-04 02:43:00,79.4,79.4,29.90,North,359,0.0,6.8,100,0.00,,SKC,0.00,VWS V14.01,2013-06-04 06:43:00,
2013-06-04 02:44:00,79.4,79.4,29.90,North,359,0.0,6.8,100,0.00,,SKC,0.00,VWS V14.01,2013-06-04 06:44:00,
2013-06-04 02:46:00,79.4,79.4,29.90,SW,225,0.0,7.9,100,0.00,,SKC,0.00,VWS V14.01,2013-06-04 06:46:00,
2013-06-04 02:47:00,79.3,79.3,29.90,SW,231,0.0,7.9,100,0.00,,SKC,0.00,VWS V14.01,2013-06-04 06:47:00,
2013-06-04 02:48:00,79.3,79.3,29.90,SW,231,0.0,7.9,100,0.00,,SKC,0.00,VWS V14.01,2013-06-04 06:48:00,
2013-06-04 02:49:00,79.3,79.3,29.90,SW,231,0.0,7.9,100,0.00,,SKC,0.00,VWS V14.01,2013-06-04 06:49:00,
2013-06-04 02:51:00,79.3,79.3,29.90,SW,231,0.0,7.9,100,0.00,,SKC,0.00,VWS V14.01,2013-06-04 06:51:00,
2013-06-04 02:52:00,79.3,79.3,29.90,SW,233,0.0,7.9,100,0.00,,SKC,0.00,VWS V14.01,2013-06-04 06:52:00,
2013-06-04 02:53:00,79.3,79.3,29.90,SW,233,0.0,7.9,100,0.00,,SKC,0.00,VWS V14.01,2013-06-04 06:53:00,
2013-06-04 02:54:00,79.3,79.3,29.90,SW,233,0.0,7.9,100,0.00,,SKC,0.00,VWS V14.01,2013-06-04 06:54:00,
2013-06-04 02:56:00,79.4,79.4,29.90,SW,233,0.0,7.9,100,0.00,,SKC,0.00,VWS V14.01,2013-06-04 06:56:00,
2013-06-04 02:57:00,79.3,79.3,29.90,SW,233,0.0,7.9,100,0.00,,SKC,0.00,VWS V14.01,2013-06-04 06:57:00,
2013-06-04 02:58:00,79.3,79.3,29.89,SW,233,0.0,7.9,100,0.00,,SKC,0.00,VWS V14.01,2013-06-04 06:58:00,
2013-06-04 02:59:00,79.3,79.3,29.90,SW,233,0.0,7.9,100,0.00,,SKC,0.00,VWS V14.01,2013-06-04 06:59:00,
2013-06-04 03:01:00,79.3,79.3,29.89,SW,233,10.3,10.3,100,0.00,,SKC,0.00,VWS V14.01,2013-06-04 07:01:00,
2013-06-04 03:02:00,79.2,79.2,29.89,SW,217,0.0,10.3,100,0.00,,SKC,0.00,VWS V14.01,2013-06-04 07:02:00,
2013-06-04 03:03:00,79.2,79.2,29.89,SW,217,0.0,10.3,100,0.00,,SKC,0.00,VWS V14.01,2013-06-04 07:03:00,
2013-06-04 03:05:00,79.2,79.2,29.89,SW,217,0.0,10.3,100,0.00,,SKC,0.00,VWS V14.01,2013-06-04 07:05:00,
2013-06-04 03:06:00,79.2,79.2,29.89,SW,217,0.2,10.3,100,0.00,,SKC,0.00,VWS V14.01,2013-06-04 07:06:00,
2013-06-04 03:07:00,79.1,79.1,29.89,SW,225,0.0,10.3,100,0.00,,SKC,0.00,VWS V14.01,2013-06-04 07:07:00,
2013-06-04 03:08:00,79.2,79.2,29.89,SW,225,0.0,10.3,100,0.00,,SKC,0.00,VWS V14.01,2013-06-04 07:08:00,
2013-06-04 03:10:00,79.2,79.2,29.89,SW,225,0.0,10.3,100,0.00,,SKC,0.00,VWS V14.01,2013-06-04 07:10:00,
2013-06-04 03:11:00,79.2,79.2,29.89,SSW,208,0.0,10.3,100,0.00,,SKC,0.00,VWS V14.01,2013-06-04 07:11:00,
2013-06-04 03:12:00,79.2,79.2,29.89,WSW,239,0.0,10.3,100,0.00,,SKC,0.00,VWS V14.01,2013-06-04 07:12:00,
2013-06-04 03:14:00,79.2,79.2,29.90,North,359,0.3,10.3,100,0.00,,SKC,0.00,VWS V14.01,2013-06-04 07:14:00,
2013-06-04 03:15:00,79.1,79.1,29.89,SW,231,4.5,10.3,100,0.00,,SKC,0.00,VWS V14.01,2013-06-04 07:15:00,
2013-06-04 03:16:00,79.1,79.1,29.89,SW,231,0.0,10.3,100,0.00,,SKC,0.00,VWS V14.01,2013-06-04 07:16:00,
2013-06-04 03:17:00,79.1,79.1,29.90,SSW,210,6.6,10.3,100,0.00,,SKC,0.00,VWS V14.01,2013-06-04 07:17:00,
2013-06-04 03:19:00,79.1,79.1,29.90,SW,236,5.7,10.3,100,0.00,,SKC,0.00,VWS V14.01,2013-06-04 07:19:00,
2013-06-04 03:20:00,79.1,79.1,29.89,North,359,0.0,10.3,100,0.00,,SKC,0.00,VWS V14.01,2013-06-04 07:20:00,
2013-06-04 03:21:00,79.1,79.1,29.89,North,359,0.0,10.3,100,0.00,,SKC,0.00,VWS V14.01,2013-06-04 07:21:00,
2013-06-04 03:22:00,79.1,79.1,29.90,North,359,0.0,10.3,100,0.00,,SKC,0.00,VWS V14.01,2013-06-04 07:22:00,
2013-06-04 03:23:00,79.1,79.1,29.90,North,359,0.0,10.3,100,0.00,,SKC,0.00,VWS V14.01,2013-06-04 07:23:00,
2013-06-04 03:24:00,79.1,79.1,29.90,North,359,0.0,10.3,100,0.00,,SKC,0.00,VWS V14.01,2013-06-04 07:24:00,
2013-06-04 03:25:00,79.1,79.1,29.89,North,359,0.0,10.3,100,0.00,,SKC,0.00,VWS V14.01,2013-06-04 07:25:00,
2013-06-04 03:27:00,79.1,79.1,29.89,North,359,0.0,10.3,100,0.00,,SKC,0.00,VWS V14.01,2013-06-04 07:27:00,
2013-06-04 03:28:00,79.1,79.1,29.89,North,359,0.0,10.3,100,0.00,,SKC,0.00,VWS V14.01,2013-06-04 07:28:00,
2013-06-04 03:29:00,79.1,79.1,29.89,North,359,0.0,10.3,100,0.00,,SKC,0.00,VWS V14.01,2013-06-04 07:29:00,
2013-06-04 03:30:00,79.1,79.1,29.89,North,359,0.0,10.3,100,0.00,,SKC,0.00,VWS V14.01,2013-06-04 07:30:00,
2013-06-04 03:32:00,79.1,79.1,29.89,North,359,0.0,10.3,100,0.00,,SKC,0.00,VWS V14.01,2013-06-04 07:32:00,
2013-06-04 03:33:00,79.1,79.0,29.89,North,359,0.0,10.3,100,0.00,,SKC,0.00,VWS V14.01,2013-06-04 07:33:00,
2013-06-04 03:34:00,79.0,79.0,29.89,North,359,0.0,10.3,100,0.00,,SKC,0.00,VWS V14.01,2013-06-04 07:34:00,
2013-06-04 03:35:00,79.1,79.1,29.89,North,359,0.0,10.3,100,0.00,,SKC,0.00,VWS V14.01,2013-06-04 07:35:00,
2013-06-04 03:37:00,79.1,79.1,29.89,SSW,201,0.0,10.3,100,0.00,,SKC,0.00,VWS V14.01,2013-06-04 07:37:00,
2013-06-04 03:38:00,79.0,79.0,29.89,SSW,201,0.0,10.3,100,0.00,,SKC,0.00,VWS V14.01,2013-06-04 07:38:00,
2013-06-04 03:39:00,79.0,79.0,29.89,WSW,238,0.0,10.3,100,0.00,,SKC,0.00,VWS V14.01,2013-06-04 07:39:00,
2013-06-04 03:40:00,79.0,79.0,29.90,SW,217,0.0,10.3,100,0.00,,SKC,0.00,VWS V14.01,2013-06-04 07:40:00,
2013-06-04 03:42:00,79.0,79.0,29.90,WSW,240,3.3,10.3,100,0.00,,SKC,0.00,VWS V14.01,2013-06-04 07:42:00,
2013-06-04 03:43:00,79.0,79.0,29.89,WSW,240,0.0,10.3,100,0.00,,SKC,0.00,VWS V14.01,2013-06-04 07:43:00,
2013-06-04 03:44:00,79.0,79.0,29.90,WSW,240,0.0,10.3,100,0.00,,SKC,0.00,VWS V14.01,2013-06-04 07:44:00,
2013-06-04 03:45:00,79.0,79.0,29.90,WSW,240,0.0,10.3,100,0.00,,SKC,0.00,VWS V14.01,2013-06-04 07:45:00,
2013-06-04 03:47:00,79.0,79.0,29.90,SSW,211,2.8,10.3,100,0.00,,SKC,0.00,VWS V14.01,2013-06-04 07:47:00,
2013-06-04 03:49:00,79.1,79.1,29.90,SW,221,0.0,10.3,100,0.00,,SKC,0.00,VWS V14.01,2013-06-04 07:49:00,
2013-06-04 03:50:00,79.0,79.0,29.90,South,190,3.9,10.3,100,0.00,,SKC,0.00,VWS V14.01,2013-06-04 07:50:00,
2013-06-04 03:52:00,79.1,79.1,29.89,South,190,0.0,10.3,100,0.00,,SKC,0.00,VWS V14.01,2013-06-04 07:52:00,
2013-06-04 03:53:00,79.0,79.0,29.89,South,190,0.0,10.3,100,0.00,,SKC,0.00,VWS V14.01,2013-06-04 07:53:00,
2013-06-04 03:54:00,79.1,79.1,29.89,South,190,0.0,10.3,100,0.00,,SKC,0.00,VWS V14.01,2013-06-04 07:54:00,
2013-06-04 03:55:00,79.0,79.0,29.90,South,190,0.0,10.3,100,0.00,,SKC,0.00,VWS V14.01,2013-06-04 07:55:00,
2013-06-04 03:56:00,79.1,79.1,29.90,South,190,0.0,10.3,100,0.00,,SKC,0.00,VWS V14.01,2013-06-04 07:56:00,
2013-06-04 03:57:00,79.1,79.0,29.90,South,190,0.0,10.3,100,0.00,,SKC,0.00,VWS V14.01,2013-06-04 07:57:00,
2013-06-04 03:58:00,79.0,79.0,29.90,South,190,0.0,10.3,100,0.00,,SKC,0.00,VWS V14.01,2013-06-04 07:58:00,
2013-06-04 03:59:00,79.0,79.0,29.90,South,190,0.0,10.3,100,0.00,,SKC,0.00,VWS V14.01,2013-06-04 07:59:00,
2013-06-04 04:00:00,79.0,79.0,29.90,South,190,0.0,10.3,100,0.00,,SKC,0.00,VWS V14.01,2013-06-04 08:00:00,
2013-06-04 04:01:00,79.0,79.0,29.90,South,190,0.0,10.3,100,0.00,,SKC,0.00,VWS V14.01,2013-06-04 08:01:00,
2013-06-04 04:02:00,79.0,79.0,29.90,South,190,0.0,10.3,100,0.00,,SKC,0.00,VWS V14.01,2013-06-04 08:02:00,
2013-06-04 04:03:00,79.0,79.0,29.90,South,190,0.0,10.3,100,0.00,,SKC,0.00,VWS V14.01,2013-06-04 08:03:00,
2013-06-04 04:04:00,79.0,79.0,29.90,South,190,0.0,10.3,100,0.00,,SKC,0.00,VWS V14.01,2013-06-04 08:04:00,
2013-06-04 04:05:00,78.9,78.9,29.90,South,190,0.0,10.3,100,0.00,,SKC,0.00,VWS V14.01,2013-06-04 08:05:00,
2013-06-04 04:06:00,79.0,79.0,29.90,South,190,0.0,10.3,100,0.00,,SKC,0.00,VWS V14.01,2013-06-04 08:06:00,
2013-06-04 04:07:00,78.9,79.0,29.89,South,190,0.0,10.3,100,0.00,,SKC,0.00,VWS V14.01,2013-06-04 08:07:00,
2013-06-04 04:08:00,79.0,79.0,29.90,South,190,0.0,10.3,100,0.00,,SKC,0.00,VWS V14.01,2013-06-04 08:08:00,
2013-06-04 04:09:00,78.9,78.9,29.90,South,190,0.0,10.3,100,0.00,,SKC,0.00,VWS V14.01,2013-06-04 08:09:00,
2013-06-04 04:10:00,79.0,79.0,29.90,South,191,3.2,10.3,100,0.00,,SKC,0.00,VWS V14.01,2013-06-04 08:10:00,
2013-06-04 04:12:00,78.9,78.9,29.90,North,359,3.6,10.3,100,0.00,,SKC,0.00,VWS V14.01,2013-06-04 08:12:00,
2013-06-04 04:13:00,78.9,78.9,29.90,SW,214,4.8,10.3,100,0.00,,SKC,0.00,VWS V14.01,2013-06-04 08:13:00,
2013-06-04 04:14:00,79.0,79.0,29.90,SW,214,0.0,10.3,100,0.00,,SKC,0.00,VWS V14.01,2013-06-04 08:14:00,
2013-06-04 04:15:00,79.0,79.0,29.90,SW,214,0.0,10.3,100,0.00,,SKC,0.00,VWS V14.01,2013-06-04 08:15:00,
2013-06-04 04:17:00,79.0,79.0,29.90,SW,214,0.0,10.3,100,0.00,,SKC,0.00,VWS V14.01,2013-06-04 08:17:00,
2013-06-04 04:18:00,79.0,79.0,29.90,SW,214,0.0,10.3,100,0.00,,SKC,0.00,VWS V14.01,2013-06-04 08:18:00,
2013-06-04 04:20:00,78.9,78.9,29.90,SW,214,0.0,10.3,100,0.00,,SKC,0.00,VWS V14.01,2013-06-04 08:20:00,
2013-06-04 04:22:00,78.9,78.9,29.90,SW,214,0.0,10.3,100,0.00,,SKC,0.00,VWS V14.01,2013-06-04 08:22:00,
2013-06-04 04:23:00,78.9,79.0,29.90,SW,214,0.0,10.3,100,0.00,,SKC,0.00,VWS V14.01,2013-06-04 08:23:00,
2013-06-04 04:25:00,78.9,78.9,29.90,SW,221,0.0,10.3,100,0.00,,SKC,0.00,VWS V14.01,2013-06-04 08:25:00,
2013-06-04 04:28:00,78.9,78.9,29.90,SW,221,0.0,10.3,100,0.00,,SKC,0.00,VWS V14.01,2013-06-04 08:28:00,
2013-06-04 04:30:00,78.9,78.9,29.90,SW,221,0.0,10.3,100,0.00,,SKC,0.00,VWS V14.01,2013-06-04 08:30:00,
2013-06-04 04:33:00,78.8,78.8,29.90,SW,221,0.0,10.3,100,0.00,,SKC,0.00,VWS V14.01,2013-06-04 08:33:00,
2013-06-04 04:34:00,78.8,78.8,29.90,SW,221,0.0,10.3,100,0.00,,SKC,0.00,VWS V14.01,2013-06-04 08:34:00,
2013-06-04 04:35:00,78.8,78.9,29.90,SW,221,0.0,10.3,100,0.00,,SKC,0.00,VWS V14.01,2013-06-04 08:35:00,
2013-06-04 04:36:00,78.9,78.9,29.90,SW,221,0.0,10.3,100,0.00,,SKC,0.00,VWS V14.01,2013-06-04 08:36:00,
2013-06-04 04:38:00,78.9,78.9,29.90,SW,221,0.0,10.3,100,0.00,,SKC,0.00,VWS V14.01,2013-06-04 08:38:00,
2013-06-04 04:39:00,78.8,78.8,29.90,SW,221,0.0,10.3,100,0.00,,SKC,0.00,VWS V14.01,2013-06-04 08:39:00,
2013-06-04 04:40:00,78.9,78.9,29.90,SW,221,0.0,10.3,100,0.00,,SKC,0.00,VWS V14.01,2013-06-04 08:40:00,
2013-06-04 04:41:00,78.8,78.8,29.90,SW,221,0.0,10.3,100,0.00,,SKC,0.00,VWS V14.01,2013-06-04 08:41:00,
2013-06-04 04:43:00,78.9,78.9,29.90,SW,221,0.0,10.3,100,0.00,,SKC,0.00,VWS V14.01,2013-06-04 08:43:00,
2013-06-04 04:44:00,78.8,78.8,29.90,SW,221,0.0,10.3,100,0.00,,SKC,0.00,VWS V14.01,2013-06-04 08:44:00,
2013-06-04 04:45:00,78.9,78.9,29.90,North,359,0.0,10.3,100,0.00,,SKC,0.00,VWS V14.01,2013-06-04 08:45:00,
2013-06-04 04:46:00,78.9,78.9,29.90,North,359,0.0,10.3,100,0.00,,SKC,0.00,VWS V14.01,2013-06-04 08:46:00,
2013-06-04 04:48:00,78.9,78.9,29.90,North,359,0.0,10.3,100,0.00,,SKC,0.00,VWS V14.01,2013-06-04 08:48:00,
2013-06-04 04:49:00,78.8,78.8,29.90,North,359,0.0,10.3,100,0.00,,SKC,0.00,VWS V14.01,2013-06-04 08:49:00,
2013-06-04 04:50:00,78.8,78.8,29.90,North,359,0.0,10.3,100,0.00,,SKC,0.00,VWS V14.01,2013-06-04 08:50:00,
2013-06-04 04:51:00,78.8,78.8,29.90,North,359,0.0,10.3,100,0.00,,SKC,0.00,VWS V14.01,2013-06-04 08:51:00,
2013-06-04 04:53:00,78.8,78.8,29.90,North,359,0.0,10.3,100,0.00,,SKC,0.00,VWS V14.01,2013-06-04 08:53:00,
2013-06-04 04:54:00,78.9,78.9,29.90,North,359,0.0,10.3,100,0.00,,SKC,0.00,VWS V14.01,2013-06-04 08:54:00,
2013-06-04 04:55:00,78.8,78.8,29.90,North,359,0.0,10.3,100,0.00,,SKC,0.00,VWS V14.01,2013-06-04 08:55:00,
2013-06-04 04:56:00,78.8,78.8,29.90,North,359,0.0,10.3,100,0.00,,SKC,0.00,VWS V14.01,2013-06-04 08:56:00,
2013-06-04 04:58:00,78.9,78.8,29.90,North,359,0.0,10.3,100,0.00,,SKC,0.00,VWS V14.01,2013-06-04 08:58:00,
2013-06-04 04:59:00,78.8,78.8,29.90,North,359,0.0,10.3,100,0.00,,SKC,0.00,VWS V14.01,2013-06-04 08:59:00,
2013-06-04 05:00:00,78.8,78.7,29.90,North,359,0.0,10.3,100,0.00,,SKC,0.00,VWS V14.01,2013-06-04 09:00:00,
2013-06-04 05:01:00,78.8,78.7,29.90,North,359,0.0,10.3,100,0.00,,SKC,0.00,VWS V14.01,2013-06-04 09:01:00,
2013-06-04 05:03:00,78.8,78.7,29.90,North,359,0.0,10.3,100,0.00,,SKC,0.00,VWS V14.01,2013-06-04 09:03:00,
2013-06-04 05:04:00,78.8,78.7,29.90,North,359,0.0,10.3,100,0.00,,SKC,0.00,VWS V14.01,2013-06-04 09:04:00,
2013-06-04 05:05:00,78.9,78.8,29.90,SW,218,4.1,10.3,100,0.00,,SKC,0.00,VWS V14.01,2013-06-04 09:05:00,
2013-06-04 05:06:00,78.8,78.8,29.90,SW,225,0.0,10.3,100,0.00,,SKC,0.00,VWS V14.01,2013-06-04 09:06:00,
2013-06-04 05:07:00,78.9,78.8,29.90,SW,225,0.0,10.3,100,0.00,,SKC,0.00,VWS V14.01,2013-06-04 09:07:00,
2013-06-04 05:08:00,78.9,78.8,29.90,SW,225,0.0,10.3,100,0.00,,SKC,0.00,VWS V14.01,2013-06-04 09:08:00,
2013-06-04 05:09:00,78.8,78.8,29.90,SW,225,0.0,10.3,100,0.00,,SKC,0.00,VWS V14.01,2013-06-04 09:09:00,
2013-06-04 05:10:00,78.8,78.8,29.90,SW,225,0.0,10.3,100,0.00,,SKC,0.00,VWS V14.01,2013-06-04 09:10:00,
2013-06-04 05:11:00,78.8,78.8,29.90,SW,225,0.0,10.3,100,0.00,,SKC,0.00,VWS V14.01,2013-06-04 09:11:00,
2013-06-04 05:12:00,78.8,78.7,29.90,SW,225,0.0,10.3,100,0.00,,SKC,0.00,VWS V14.01,2013-06-04 09:12:00,
2013-06-04 05:13:00,78.7,78.7,29.90,SW,225,0.0,10.3,100,0.00,,SKC,0.00,VWS V14.01,2013-06-04 09:13:00,
2013-06-04 05:14:00,78.8,78.8,29.90,SW,225,0.0,10.3,100,0.00,,SKC,0.00,VWS V14.01,2013-06-04 09:14:00,
2013-06-04 05:15:00,78.8,78.8,29.90,SW,225,0.0,10.3,100,0.00,,SKC,0.00,VWS V14.01,2013-06-04 09:15:00,
2013-06-04 05:17:00,78.8,78.8,29.90,SW,225,0.0,10.3,100,0.00,,SKC,0.00,VWS V14.01,2013-06-04 09:17:00,
2013-06-04 05:19:00,78.8,78.7,29.90,SW,225,0.0,10.3,100,0.00,,SKC,0.00,VWS V14.01,2013-06-04 09:19:00,
2013-06-04 05:20:00,78.7,78.7,29.90,SW,225,0.0,10.3,100,0.00,,SKC,0.00,VWS V14.01,2013-06-04 09:20:00,
2013-06-04 05:22:00,78.7,78.7,29.90,SW,225,0.0,10.3,100,0.00,,SKC,0.00,VWS V14.01,2013-06-04 09:22:00,
2013-06-04 05:24:00,78.7,78.7,29.90,SW,225,0.0,10.3,100,0.00,,SKC,0.00,VWS V14.01,2013-06-04 09:24:00,
2013-06-04 05:25:00,78.7,78.7,29.90,SW,225,0.0,10.3,100,0.00,,SKC,0.00,VWS V14.01,2013-06-04 09:25:00,
2013-06-04 05:27:00,78.4,78.3,29.90,SW,225,0.0,10.3,100,0.00,,SKC,0.00,VWS V14.01,2013-06-04 09:27:00,
2013-06-04 05:30:00,78.1,78.1,29.90,SW,225,0.0,10.3,100,0.00,,SKC,0.00,VWS V14.01,2013-06-04 09:30:00,
2013-06-04 05:32:00,77.8,77.8,29.90,SW,225,0.0,10.3,100,0.00,,SKC,0.00,VWS V14.01,2013-06-04 09:32:00,
2013-06-04 05:35:00,77.1,77.1,29.91,SW,225,0.0,10.3,100,0.00,,SKC,0.00,VWS V14.01,2013-06-04 09:35:00,
2013-06-04 05:37:00,76.5,76.5,29.91,SW,225,0.0,10.3,100,0.00,,SKC,0.00,VWS V14.01,2013-06-04 09:37:00,
2013-06-04 05:40:00,76.1,76.0,29.91,SW,225,0.0,10.3,100,0.00,,SKC,0.00,VWS V14.01,2013-06-04 09:40:00,
2013-06-04 05:42:00,75.7,75.7,29.91,SW,225,0.0,10.3,100,0.00,,SKC,0.00,VWS V14.01,2013-06-04 09:42:00,
2013-06-04 05:45:00,75.3,75.3,29.91,SW,225,0.0,10.3,100,0.00,,SKC,0.00,VWS V14.01,2013-06-04 09:45:00,
2013-06-04 05:47:00,75.1,75.1,29.91,SW,225,0.0,10.3,100,0.00,,SKC,0.00,VWS V14.01,2013-06-04 09:47:00,
2013-06-04 05:48:00,75.0,75.0,29.91,SW,225,0.0,10.3,100,0.00,,SKC,0.00,VWS V14.01,2013-06-04 09:48:00,
2013-06-04 05:50:00,74.8,74.8,29.91,SW,225,0.0,10.3,100,0.00,,SKC,0.00,VWS V14.01,2013-06-04 09:50:00,
2013-06-04 05:51:00,74.7,74.7,29.91,SW,225,0.0,10.3,100,0.00,,SKC,0.00,VWS V14.01,2013-06-04 09:51:00,
2013-06-04 05:53:00,74.7,74.7,29.92,SW,225,0.0,10.3,100,0.00,,SKC,0.00,VWS V14.01,2013-06-04 09:53:00,
2013-06-04 05:55:00,74.6,74.6,29.92,SW,225,0.0,10.3,100,0.00,,SKC,0.00,VWS V14.01,2013-06-04 09:55:00,
2013-06-04 05:56:00,74.6,74.4,29.92,SW,225,0.0,10.3,100,0.00,,SKC,0.00,VWS V14.01,2013-06-04 09:56:00,
2013-06-04 05:58:00,74.4,74.4,29.92,SW,225,0.0,10.3,100,0.00,,SKC,0.00,VWS V14.01,2013-06-04 09:58:00,
2013-06-04 06:00:00,74.4,74.4,29.92,SW,225,0.0,10.3,100,0.00,,SKC,0.00,VWS V14.01,2013-06-04 10:00:00,
2013-06-04 06:01:00,74.4,74.4,29.92,SW,225,0.0,10.3,100,0.00,,SKC,0.00,VWS V14.01,2013-06-04 10:01:00,
2013-06-04 06:03:00,74.3,74.3,29.91,SW,225,0.0,10.3,100,0.00,,SKC,0.00,VWS V14.01,2013-06-04 10:03:00,
2013-06-04 06:04:00,74.3,74.3,29.91,SW,225,0.0,10.3,100,0.00,,SKC,0.00,VWS V14.01,2013-06-04 10:04:00,
2013-06-04 06:05:00,74.2,74.3,29.91,SW,225,0.0,10.3,100,0.00,,SKC,0.00,VWS V14.01,2013-06-04 10:05:00,
2013-06-04 06:06:00,74.3,74.3,29.91,SW,225,0.0,10.3,100,0.00,,SKC,0.00,VWS V14.01,2013-06-04 10:06:00,
2013-06-04 06:08:00,74.1,74.1,29.91,SW,225,0.0,10.3,100,0.00,,SKC,0.00,VWS V14.01,2013-06-04 10:08:00,
2013-06-04 06:09:00,74.1,74.1,29.91,SW,225,0.0,10.3,100,0.00,,SKC,0.00,VWS V14.01,2013-06-04 10:09:00,
2013-06-04 06:10:00,74.1,74.1,29.92,SW,225,0.0,10.3,100,0.00,,SKC,0.00,VWS V14.01,2013-06-04 10:10:00,
2013-06-04 06:11:00,74.1,74.1,29.92,SW,225,0.0,10.3,100,0.00,,SKC,0.00,VWS V14.01,2013-06-04 10:11:00,
2013-06-04 06:13:00,74.0,74.0,29.92,SW,225,0.0,10.3,100,0.00,,SKC,0.00,VWS V14.01,2013-06-04 10:13:00,
2013-06-04 06:14:00,74.0,74.0,29.92,SW,225,0.0,10.3,100,0.00,,SKC,0.00,VWS V14.01,2013-06-04 10:14:00,
2013-06-04 06:15:00,73.9,73.9,29.92,SW,225,0.0,10.3,100,0.00,,SKC,0.00,VWS V14.01,2013-06-04 10:15:00,
2013-06-04 06:16:00,74.0,74.0,29.92,SW,225,0.0,10.3,100,0.00,,SKC,0.00,VWS V14.01,2013-06-04 10:16:00,
2013-06-04 06:18:00,73.9,73.9,29.92,SW,225,0.0,10.3,100,0.00,,SKC,0.00,VWS V14.01,2013-06-04 10:18:00,
2013-06-04 06:19:00,73.9,73.9,29.92,SW,225,0.0,10.3,100,0.00,,SKC,0.00,VWS V14.01,2013-06-04 10:19:00,
2013-06-04 06:21:00,73.7,73.7,29.92,SW,225,0.0,10.3,100,0.00,,SKC,0.00,VWS V14.01,2013-06-04 10:21:00,
2013-06-04 06:22:00,73.7,73.7,29.92,SW,225,0.0,10.3,100,0.00,,SKC,0.00,VWS V14.01,2013-06-04 10:22:00,
2013-06-04 06:23:00,73.7,73.7,29.92,SW,225,0.0,10.3,100,0.00,,SKC,0.00,VWS V14.01,2013-06-04 10:23:00,
2013-06-04 06:24:00,73.6,73.6,29.92,SW,225,0.0,10.3,100,0.00,,SKC,0.00,VWS V14.01,2013-06-04 10:24:00,
2013-06-04 06:26:00,73.6,73.6,29.92,SW,225,0.0,10.3,100,0.00,,SKC,0.00,VWS V14.01,2013-06-04 10:26:00,
2013-06-04 06:27:00,73.5,73.5,29.92,SW,225,0.0,10.3,100,0.00,,SKC,0.00,VWS V14.01,2013-06-04 10:27:00,
2013-06-04 06:28:00,73.5,73.5,29.92,SW,225,0.0,10.3,100,0.00,,SKC,0.00,VWS V14.01,2013-06-04 10:28:00,
2013-06-04 06:29:00,73.4,73.4,29.92,SW,225,0.0,10.3,100,0.00,,SKC,0.00,VWS V14.01,2013-06-04 10:29:00,
2013-06-04 06:31:00,73.4,73.4,29.92,SW,225,0.0,10.3,100,0.00,,SKC,0.00,VWS V14.01,2013-06-04 10:31:00,
2013-06-04 06:32:00,73.4,73.4,29.92,SW,225,0.0,10.3,100,0.00,,SKC,0.00,VWS V14.01,2013-06-04 10:32:00,
2013-06-04 06:34:00,73.3,73.3,29.92,SW,225,0.0,10.3,100,0.00,,SKC,0.00,VWS V14.01,2013-06-04 10:34:00,
2013-06-04 06:35:00,73.2,73.2,29.92,SW,225,0.0,10.3,100,0.00,,SKC,0.00,VWS V14.01,2013-06-04 10:35:00,
2013-06-04 06:37:00,73.2,73.2,29.92,SW,225,0.0,10.3,100,0.00,,SKC,0.00,VWS V14.01,2013-06-04 10:37:00,
2013-06-04 06:39:00,73.2,73.2,29.92,SW,225,0.0,10.3,100,0.00,,SKC,0.00,VWS V14.01,2013-06-04 10:39:00,
2013-06-04 06:40:00,73.2,73.2,29.92,SW,225,0.0,10.3,100,0.00,,SKC,0.00,VWS V14.01,2013-06-04 10:40:00,
2013-06-04 06:42:00,73.2,73.2,29.92,SW,225,0.0,10.3,100,0.00,,SKC,0.00,VWS V14.01,2013-06-04 10:42:00,
2013-06-04 06:44:00,73.1,73.1,29.92,SW,225,0.0,10.3,100,0.00,,SKC,0.00,VWS V14.01,2013-06-04 10:44:00,
2013-06-04 06:45:00,73.1,73.1,29.92,SW,225,0.0,10.3,100,0.00,,SKC,0.00,VWS V14.01,2013-06-04 10:45:00,
2013-06-04 06:47:00,73.1,73.1,29.92,SW,225,0.0,10.3,100,0.00,,SKC,0.00,VWS V14.01,2013-06-04 10:47:00,
2013-06-04 06:48:00,73.1,73.1,29.92,SW,225,0.0,10.3,100,0.00,,SKC,0.00,VWS V14.01,2013-06-04 10:48:00,
2013-06-04 06:49:00,73.1,73.1,29.92,SW,225,0.0,10.3,100,0.00,,SKC,0.00,VWS V14.01,2013-06-04 10:49:00,
2013-06-04 06:50:00,73.0,73.0,29.92,SW,225,0.0,10.3,100,0.00,,SKC,0.00,VWS V14.01,2013-06-04 10:50:00,
2013-06-04 06:52:00,73.1,73.1,29.92,SW,225,0.0,10.3,100,0.00,,SKC,0.00,VWS V14.01,2013-06-04 10:52:00,
2013-06-04 06:53:00,73.0,73.0,29.92,SW,225,0.0,10.3,100,0.00,,SKC,0.00,VWS V14.01,2013-06-04 10:53:00,
2013-06-04 06:54:00,73.0,73.0,29.92,SW,225,0.0,10.3,100,0.00,,SKC,0.00,VWS V14.01,2013-06-04 10:54:00,
2013-06-04 06:55:00,73.1,73.1,29.93,SW,225,0.0,10.3,100,0.00,,SKC,0.00,VWS V14.01,2013-06-04 10:55:00,
2013-06-04 06:57:00,73.0,73.0,29.93,SW,225,0.0,10.3,100,0.00,,SKC,0.00,VWS V14.01,2013-06-04 10:57:00,
2013-06-04 06:58:00,73.0,73.0,29.93,SW,225,0.0,10.3,100,0.00,,SKC,0.00,VWS V14.01,2013-06-04 10:58:00,
2013-06-04 06:59:00,73.0,73.0,29.93,SW,225,0.0,10.3,100,0.00,,SKC,0.00,VWS V14.01,2013-06-04 10:59:00,
2013-06-04 07:00:00,73.0,73.0,29.92,SW,225,0.0,10.3,100,0.00,,SKC,0.00,VWS V14.01,2013-06-04 11:00:00,
2013-06-04 07:02:00,73.0,72.9,29.92,SW,225,0.0,10.3,100,0.00,,SKC,0.00,VWS V14.01,2013-06-04 11:02:00,
2013-06-04 07:03:00,72.9,73.0,29.92,SW,225,0.0,10.3,100,0.00,,SKC,0.00,VWS V14.01,2013-06-04 11:03:00,
2013-06-04 07:04:00,73.0,73.0,29.92,SW,225,0.0,10.3,100,0.00,,SKC,0.00,VWS V14.01,2013-06-04 11:04:00,
2013-06-04 07:05:00,73.0,73.0,29.92,SW,225,0.0,10.3,100,0.00,,SKC,0.00,VWS V14.01,2013-06-04 11:05:00,
2013-06-04 07:08:00,72.9,72.9,29.93,SW,225,0.0,10.3,100,0.00,,SKC,0.00,VWS V14.01,2013-06-04 11:08:00,
2013-06-04 07:09:00,73.0,73.0,29.93,SW,225,0.0,10.3,100,0.00,,SKC,0.00,VWS V14.01,2013-06-04 11:09:00,
2013-06-04 07:11:00,73.0,73.0,29.93,SW,225,0.0,10.3,100,0.00,,SKC,0.00,VWS V14.01,2013-06-04 11:11:00,
2013-06-04 07:13:00,73.0,73.0,29.93,SW,225,0.0,10.3,100,0.00,,SKC,0.00,VWS V14.01,2013-06-04 11:13:00,
2013-06-04 07:15:00,73.0,73.0,29.93,SW,225,0.0,10.3,100,0.00,,SKC,0.00,VWS V14.01,2013-06-04 11:15:00,
2013-06-04 07:16:00,73.0,73.0,29.93,SW,225,0.0,10.3,100,0.00,,SKC,0.00,VWS V14.01,2013-06-04 11:16:00,
2013-06-04 07:18:00,73.0,73.0,29.93,SW,225,0.0,10.3,100,0.00,,SKC,0.00,VWS V14.01,2013-06-04 11:18:00,
2013-06-04 07:20:00,73.1,73.1,29.93,SW,225,0.0,10.3,100,0.00,,SKC,0.00,VWS V14.01,2013-06-04 11:20:00,
2013-06-04 07:21:00,73.1,73.1,29.93,SW,225,0.0,10.3,100,0.00,,SKC,0.00,VWS V14.01,2013-06-04 11:21:00,
2013-06-04 07:23:00,73.1,73.1,29.93,SW,225,0.0,10.3,100,0.00,,SKC,0.00,VWS V14.01,2013-06-04 11:23:00,
2013-06-04 07:25:00,73.2,73.2,29.93,SW,225,0.0,10.3,100,0.00,,SKC,0.00,VWS V14.01,2013-06-04 11:25:00,
2013-06-04 07:26:00,73.2,73.2,29.93,SW,225,0.0,10.3,100,0.00,,SKC,0.00,VWS V14.01,2013-06-04 11:26:00,
2013-06-04 07:28:00,73.3,73.3,29.93,SW,225,0.0,10.3,100,0.00,,SKC,0.00,VWS V14.01,2013-06-04 11:28:00,
2013-06-04 07:29:00,73.3,73.3,29.93,SW,225,0.0,10.3,100,0.00,,SKC,0.00,VWS V14.01,2013-06-04 11:29:00,
2013-06-04 07:30:00,73.3,73.3,29.93,SW,225,0.0,10.3,100,0.00,,SKC,0.00,VWS V14.01,2013-06-04 11:30:00,
2013-06-04 07:31:00,73.3,73.3,29.93,SW,225,0.0,10.3,100,0.00,,SKC,0.00,VWS V14.01,2013-06-04 11:31:00,
2013-06-04 07:33:00,73.5,73.5,29.93,SW,225,0.0,10.3,100,0.00,,SKC,0.00,VWS V14.01,2013-06-04 11:33:00,
2013-06-04 07:34:00,73.5,73.5,29.93,SW,225,0.0,10.3,100,0.00,,SKC,0.00,VWS V14.01,2013-06-04 11:34:00,
2013-06-04 07:35:00,73.5,73.5,29.94,SW,225,0.0,10.3,100,0.00,,SKC,0.00,VWS V14.01,2013-06-04 11:35:00,
2013-06-04 07:36:00,73.6,73.6,29.93,SW,225,0.0,10.3,100,0.00,,SKC,0.00,VWS V14.01,2013-06-04 11:36:00,
2013-06-04 07:38:00,73.7,73.7,29.94,SW,225,0.0,10.3,100,0.00,,SKC,0.00,VWS V14.01,2013-06-04 11:38:00,
2013-06-04 07:39:00,73.8,73.8,29.94,SW,225,0.0,10.3,100,0.00,,SKC,0.00,VWS V14.01,2013-06-04 11:39:00,
2013-06-04 07:40:00,73.9,73.9,29.94,SW,225,0.0,10.3,100,0.00,,SKC,0.00,VWS V14.01,2013-06-04 11:40:00,
2013-06-04 07:42:00,73.9,73.9,29.94,SW,225,0.0,10.3,100,0.00,,SKC,0.00,VWS V14.01,2013-06-04 11:42:00,
2013-06-04 07:43:00,74.0,74.0,29.93,SW,225,0.0,10.3,100,0.00,,SKC,0.00,VWS V14.01,2013-06-04 11:43:00,
2013-06-04 07:44:00,74.0,74.0,29.93,SW,225,0.0,10.3,100,0.00,,SKC,0.00,VWS V14.01,2013-06-04 11:44:00,
2013-06-04 07:45:00,74.0,74.0,29.94,SW,225,0.0,10.3,100,0.00,,SKC,0.00,VWS V14.01,2013-06-04 11:45:00,
2013-06-04 07:47:00,74.0,74.0,29.94,SW,225,0.0,10.3,100,0.00,,SKC,0.00,VWS V14.01,2013-06-04 11:47:00,
2013-06-04 07:48:00,74.1,74.1,29.94,SW,225,0.0,10.3,100,0.00,,SKC,0.00,VWS V14.01,2013-06-04 11:48:00,
2013-06-04 07:49:00,74.1,74.1,29.94,SW,225,0.0,10.3,100,0.00,,SKC,0.00,VWS V14.01,2013-06-04 11:49:00,
2013-06-04 07:50:00,74.2,74.2,29.94,SW,225,0.0,10.3,100,0.00,,SKC,0.00,VWS V14.01,2013-06-04 11:50:00,
2013-06-04 07:52:00,74.1,74.1,29.93,SW,225,0.0,10.3,100,0.00,,SKC,0.00,VWS V14.01,2013-06-04 11:52:00,
2013-06-04 07:53:00,74.1,74.1,29.93,SW,225,0.0,10.3,100,0.00,,SKC,0.00,VWS V14.01,2013-06-04 11:53:00,
2013-06-04 07:54:00,74.2,74.2,29.93,SW,225,0.0,10.3,100,0.00,,SKC,0.00,VWS V14.01,2013-06-04 11:54:00,
2013-06-04 07:56:00,74.2,74.2,29.93,SW,225,0.0,10.3,100,0.00,,SKC,0.00,VWS V14.01,2013-06-04 11:56:00,
2013-06-04 07:57:00,74.3,74.3,29.92,SW,225,0.0,10.3,100,0.00,,SKC,0.00,VWS V14.01,2013-06-04 11:57:00,
2013-06-04 07:59:00,74.3,74.3,29.93,SW,225,0.0,10.3,100,0.00,,SKC,0.00,VWS V14.01,2013-06-04 11:59:00,
2013-06-04 08:01:00,74.3,74.3,29.93,SW,225,0.0,10.3,100,0.00,,SKC,0.00,VWS V14.01,2013-06-04 12:01:00,
2013-06-04 08:02:00,74.3,74.3,29.93,SW,225,0.0,10.3,100,0.00,,SKC,0.00,VWS V14.01,2013-06-04 12:02:00,
2013-06-04 08:04:00,74.4,74.4,29.93,SW,225,0.0,10.3,100,0.00,,SKC,0.00,VWS V14.01,2013-06-04 12:04:00,
2013-06-04 08:06:00,74.6,74.6,29.93,SW,225,0.0,10.3,100,0.00,,SKC,0.00,VWS V14.01,2013-06-04 12:06:00,
2013-06-04 08:07:00,74.7,74.7,29.92,SW,225,0.0,10.3,100,0.00,,SKC,0.00,VWS V14.01,2013-06-04 12:07:00,
2013-06-04 08:09:00,74.8,74.8,29.93,SW,225,0.0,10.3,100,0.00,,SKC,0.00,VWS V14.01,2013-06-04 12:09:00,
2013-06-04 08:12:00,75.1,75.1,29.93,SW,225,0.0,10.3,100,0.00,,SKC,0.00,VWS V14.01,2013-06-04 12:12:00,
2013-06-04 08:14:00,75.4,75.4,29.93,SW,225,0.0,10.3,100,0.00,,SKC,0.00,VWS V14.01,2013-06-04 12:14:00,
2013-06-04 08:17:00,75.5,75.7,29.93,SW,225,0.0,10.3,100,0.00,,SKC,0.00,VWS V14.01,2013-06-04 12:17:00,
2013-06-04 08:18:00,75.8,75.8,29.93,SW,225,0.0,10.3,100,0.00,,SKC,0.00,VWS V14.01,2013-06-04 12:18:00,
2013-06-04 08:19:00,75.9,75.9,29.93,SW,225,0.0,10.3,100,0.00,,SKC,0.00,VWS V14.01,2013-06-04 12:19:00,
2013-06-04 08:22:00,76.1,76.1,29.92,SW,225,0.0,10.3,100,0.00,,SKC,0.00,VWS V14.01,2013-06-04 12:22:00,
2013-06-04 08:23:00,76.3,76.2,29.92,SW,225,0.0,10.3,100,0.00,,SKC,0.00,VWS V14.01,2013-06-04 12:23:00,
2013-06-04 08:24:00,76.3,76.3,29.93,SW,225,0.0,10.3,100,0.00,,SKC,0.00,VWS V14.01,2013-06-04 12:24:00,
2013-06-04 08:25:00,76.4,76.4,29.93,SW,225,0.0,10.3,100,0.00,,SKC,0.00,VWS V14.01,2013-06-04 12:25:00,
2013-06-04 08:27:00,76.7,76.7,29.93,SW,225,0.0,10.3,100,0.00,,SKC,0.00,VWS V14.01,2013-06-04 12:27:00,
2013-06-04 08:28:00,76.8,76.8,29.93,SW,225,0.0,10.3,100,0.00,,SKC,0.00,VWS V14.01,2013-06-04 12:28:00,
2013-06-04 08:29:00,76.9,76.9,29.93,SW,225,0.0,10.3,100,0.00,,SKC,0.00,VWS V14.01,2013-06-04 12:29:00,
2013-06-04 08:30:00,76.9,76.9,29.93,SW,225,0.0,10.3,100,0.00,,SKC,0.00,VWS V14.01,2013-06-04 12:30:00,
2013-06-04 08:32:00,77.0,77.1,29.93,SW,225,0.0,10.3,100,0.00,,SKC,0.00,VWS V14.01,2013-06-04 12:32:00,
2013-06-04 08:33:00,77.2,77.2,29.93,SW,225,0.0,10.3,100,0.00,,SKC,0.00,VWS V14.01,2013-06-04 12:33:00,
2013-06-04 08:34:00,77.3,77.3,29.93,SW,225,0.0,10.3,100,0.00,,SKC,0.00,VWS V14.01,2013-06-04 12:34:00,
2013-06-04 08:35:00,77.3,77.3,29.93,SW,225,0.0,10.3,100,0.00,,SKC,0.00,VWS V14.01,2013-06-04 12:35:00,
2013-06-04 08:37:00,77.5,77.5,29.93,SW,225,0.0,10.3,100,0.00,,SKC,0.00,VWS V14.01,2013-06-04 12:37:00,
2013-06-04 08:38:00,77.7,77.7,29.93,SW,225,0.0,10.3,100,0.00,,SKC,0.00,VWS V14.01,2013-06-04 12:38:00,
2013-06-04 08:40:00,77.8,77.8,29.93,SW,225,0.0,10.3,100,0.00,,SKC,0.00,VWS V14.01,2013-06-04 12:40:00,
2013-06-04 08:42:00,77.9,77.9,29.93,SW,225,0.0,10.3,100,0.00,,SKC,0.00,VWS V14.01,2013-06-04 12:42:00,
2013-06-04 08:43:00,78.0,78.0,29.94,SW,225,0.0,10.3,100,0.00,,SKC,0.00,VWS V14.01,2013-06-04 12:43:00,
2013-06-04 08:45:00,78.1,78.1,29.94,SW,225,0.0,10.3,100,0.00,,SKC,0.00,VWS V14.01,2013-06-04 12:45:00,
2013-06-04 08:47:00,78.2,78.2,29.94,SW,225,0.0,10.3,100,0.00,,SKC,0.00,VWS V14.01,2013-06-04 12:47:00,
2013-06-04 08:49:00,78.3,78.3,29.93,SW,225,0.0,10.3,100,0.00,,SKC,0.00,VWS V14.01,2013-06-04 12:49:00,
2013-06-04 08:50:00,78.4,78.4,29.94,SW,225,0.0,10.3,100,0.00,,SKC,0.00,VWS V14.01,2013-06-04 12:50:00,
2013-06-04 08:52:00,78.4,78.4,29.94,SW,225,0.0,10.3,100,0.00,,SKC,0.00,VWS V14.01,2013-06-04 12:52:00,
2013-06-04 08:54:00,78.5,78.5,29.94,North,359,0.0,10.3,100,0.00,,SKC,0.00,VWS V14.01,2013-06-04 12:54:00,
2013-06-04 08:55:00,78.5,78.5,29.94,North,359,0.9,10.3,100,0.00,,SKC,0.00,VWS V14.01,2013-06-04 12:55:00,
2013-06-04 08:56:00,78.5,78.5,29.94,South,174,0.0,10.3,100,0.00,,SKC,0.00,VWS V14.01,2013-06-04 12:56:00,
2013-06-04 08:57:00,78.7,78.7,29.94,South,174,0.0,10.3,100,0.00,,SKC,0.00,VWS V14.01,2013-06-04 12:57:00,
2013-06-04 08:59:00,78.5,78.5,29.94,SSW,205,3.7,10.3,100,0.00,,SKC,0.00,VWS V14.01,2013-06-04 12:59:00,
2013-06-04 09:00:00,78.5,78.5,29.93,North,359,0.0,10.3,100,0.00,,SKC,0.00,VWS V14.01,2013-06-04 13:00:00,
2013-06-04 09:02:00,78.7,78.7,29.94,North,359,0.0,10.3,100,0.00,,SKC,0.00,VWS V14.01,2013-06-04 13:02:00,
2013-06-04 09:03:00,78.7,78.7,29.94,North,359,0.0,10.3,100,0.00,,SKC,0.00,VWS V14.01,2013-06-04 13:03:00,
2013-06-04 09:04:00,78.7,78.7,29.94,North,359,0.0,10.3,100,0.00,,SKC,0.00,VWS V14.01,2013-06-04 13:04:00,
2013-06-04 09:05:00,78.8,78.8,29.94,North,359,0.0,10.3,100,0.00,,SKC,0.00,VWS V14.01,2013-06-04 13:05:00,
2013-06-04 09:07:00,78.9,78.9,29.94,North,359,0.0,10.3,100,0.00,,SKC,0.00,VWS V14.01,2013-06-04 13:07:00,
2013-06-04 09:08:00,78.9,78.9,29.94,North,359,0.0,10.3,100,0.00,,SKC,0.00,VWS V14.01,2013-06-04 13:08:00,
2013-06-04 09:09:00,79.0,79.0,29.95,North,359,0.0,10.3,100,0.00,,SKC,0.00,VWS V14.01,2013-06-04 13:09:00,
2013-06-04 09:10:00,79.0,79.0,29.95,North,359,0.0,10.3,100,0.00,,SKC,0.00,VWS V14.01,2013-06-04 13:10:00,
2013-06-04 09:13:00,79.1,79.1,29.94,North,359,0.0,10.3,100,0.00,,SKC,0.00,VWS V14.01,2013-06-04 13:13:00,
2013-06-04 09:14:00,79.1,79.1,29.94,North,359,0.0,10.3,100,0.00,,SKC,0.00,VWS V14.01,2013-06-04 13:14:00,
2013-06-04 09:15:00,79.1,79.1,29.94,North,359,0.0,10.3,100,0.00,,SKC,0.00,VWS V14.01,2013-06-04 13:15:00,
2013-06-04 09:16:00,79.2,79.2,29.94,North,359,0.0,10.3,100,0.00,,SKC,0.00,VWS V14.01,2013-06-04 13:16:00,
2013-06-04 09:18:00,79.4,79.4,29.94,SSE,159,0.0,10.3,100,0.00,,SKC,0.00,VWS V14.01,2013-06-04 13:18:00,
2013-06-04 09:19:00,79.4,79.4,29.94,SSE,159,0.0,10.3,100,0.00,,SKC,0.00,VWS V14.01,2013-06-04 13:19:00,
2013-06-04 09:21:00,79.4,79.4,29.94,SSE,159,0.0,10.3,100,0.00,,SKC,0.00,VWS V14.01,2013-06-04 13:21:00,
2013-06-04 09:23:00,79.2,79.2,29.94,SSE,163,0.0,10.3,100,0.00,,SKC,0.00,VWS V14.01,2013-06-04 13:23:00,
2013-06-04 09:24:00,79.1,79.1,29.94,SSE,163,0.0,10.3,100,0.00,,SKC,0.00,VWS V14.01,2013-06-04 13:24:00,
2013-06-04 09:26:00,79.0,79.0,29.93,SSE,163,0.0,10.3,100,0.00,,SKC,0.00,VWS V14.01,2013-06-04 13:26:00,
2013-06-04 09:27:00,79.0,79.0,29.94,SSE,163,0.0,10.3,100,0.00,,SKC,0.00,VWS V14.01,2013-06-04 13:27:00,
2013-06-04 09:28:00,79.0,79.0,29.94,SSE,153,0.6,10.3,100,0.00,,SKC,0.00,VWS V14.01,2013-06-04 13:28:00,
2013-06-04 09:29:00,79.0,79.0,29.94,SSE,153,0.0,10.3,100,0.00,,SKC,0.00,VWS V14.01,2013-06-04 13:29:00,
2013-06-04 09:32:00,79.1,79.1,29.94,SSE,165,4.3,10.3,100,0.00,,SKC,0.00,VWS V14.01,2013-06-04 13:32:00,
2013-06-04 09:34:00,79.1,79.1,29.94,South,170,3.5,10.3,100,0.00,,SKC,0.00,VWS V14.01,2013-06-04 13:34:00,
2013-06-04 09:37:00,79.1,79.1,29.94,South,180,5.3,10.3,100,0.00,,SKC,0.00,VWS V14.01,2013-06-04 13:37:00,
2013-06-04 09:39:00,79.1,79.1,29.94,SSE,166,5.0,10.3,100,0.00,,SKC,0.00,VWS V14.01,2013-06-04 13:39:00,
2013-06-04 09:40:00,79.1,79.1,29.94,South,170,5.9,10.3,100,0.00,,SKC,0.00,VWS V14.01,2013-06-04 13:40:00,
2013-06-04 09:42:00,79.2,79.2,29.94,WSW,242,6.0,10.3,100,0.00,,SKC,0.00,VWS V14.01,2013-06-04 13:42:00,
2013-06-04 09:44:00,79.4,79.4,29.94,SSW,212,6.2,10.3,100,0.00,,SKC,0.00,VWS V14.01,2013-06-04 13:44:00,
2013-06-04 09:45:00,79.7,79.7,29.94,SSW,195,4.6,10.3,100,0.00,,SKC,0.00,VWS V14.01,2013-06-04 13:45:00,
2013-06-04 09:47:00,79.9,79.9,29.94,South,174,4.7,10.3,100,0.00,,SKC,0.00,VWS V14.01,2013-06-04 13:47:00,
2013-06-04 09:48:00,79.9,79.9,29.94,South,174,0.0,10.3,100,0.00,,SKC,0.00,VWS V14.01,2013-06-04 13:48:00,
2013-06-04 09:49:00,80.0,80.0,29.94,South,174,0.0,10.3,100,0.00,,SKC,0.00,VWS V14.01,2013-06-04 13:49:00,
2013-06-04 09:50:00,80.2,80.2,29.94,South,190,0.0,10.3,100,0.00,,SKC,0.00,VWS V14.01,2013-06-04 13:50:00,
2013-06-04 09:52:00,80.3,80.3,29.94,SSW,198,9.6,10.3,100,0.00,,SKC,0.00,VWS V14.01,2013-06-04 13:52:00,
2013-06-04 09:53:00,80.2,80.2,29.94,SSW,195,0.8,10.3,100,0.00,,SKC,0.00,VWS V14.01,2013-06-04 13:53:00,
2013-06-04 09:54:00,80.3,80.3,29.94,South,187,6.5,10.3,100,0.00,,SKC,0.00,VWS V14.01,2013-06-04 13:54:00,
2013-06-04 09:55:00,80.3,80.3,29.94,South,176,6.0,11.1,100,0.00,,SKC,0.00,VWS V14.01,2013-06-04 13:55:00,
2013-06-04 09:57:00,80.4,80.4,29.94,South,173,9.1,11.7,100,0.00,,SKC,0.00,VWS V14.01,2013-06-04 13:57:00,
2013-06-04 09:58:00,80.5,80.5,29.94,SSW,201,1.7,11.7,100,0.00,,SKC,0.00,VWS V14.01,2013-06-04 13:58:00,
2013-06-04 09:59:00,80.5,80.3,29.94,South,180,7.9,11.7,100,0.00,,SKC,0.00,VWS V14.01,2013-06-04 13:59:00,
2013-06-04 10:00:00,80.4,80.5,29.94,South,188,5.6,11.7,100,0.00,,SKC,0.00,VWS V14.01,2013-06-04 14:00:00,
2013-06-04 10:02:00,80.6,80.6,29.94,South,190,0.0,11.7,100,0.00,,SKC,0.00,VWS V14.01,2013-06-04 14:02:00,
2013-06-04 10:03:00,80.7,80.7,29.94,North,359,0.0,11.7,100,0.00,,SKC,0.00,VWS V14.01,2013-06-04 14:03:00,
2013-06-04 10:04:00,80.6,80.6,29.94,North,359,0.0,11.7,100,0.00,,SKC,0.00,VWS V14.01,2013-06-04 14:04:00,
2013-06-04 10:06:00,80.7,80.6,29.94,SW,233,5.1,11.7,100,0.00,,SKC,0.00,VWS V14.01,2013-06-04 14:06:00,
2013-06-04 10:07:00,80.8,80.7,29.94,SSE,163,3.3,11.7,100,0.00,,SKC,0.00,VWS V14.01,2013-06-04 14:07:00,
2013-06-04 10:08:00,80.8,80.7,29.94,South,177,12.1,12.4,100,0.00,,SKC,0.00,VWS V14.01,2013-06-04 14:08:00,
2013-06-04 10:09:00,80.8,80.7,29.94,SSE,165,0.7,12.4,100,0.00,,SKC,0.00,VWS V14.01,2013-06-04 14:09:00,
2013-06-04 10:11:00,80.9,80.8,29.94,SW,229,3.7,12.4,100,0.00,,SKC,0.00,VWS V14.01,2013-06-04 14:11:00,
2013-06-04 10:12:00,81.0,80.8,29.94,North,359,0.0,12.4,99,0.00,,SKC,0.00,VWS V14.01,2013-06-04 14:12:00,
2013-06-04 10:14:00,80.9,80.5,29.94,SW,219,0.0,12.5,99,0.00,,SKC,0.00,VWS V14.01,2013-06-04 14:14:00,
2013-06-04 10:15:00,81.0,80.5,29.94,SW,218,8.1,12.5,98,0.00,,SKC,0.00,VWS V14.01,2013-06-04 14:15:00,
2013-06-04 10:16:00,80.9,80.5,29.94,South,170,9.8,12.5,99,0.00,,SKC,0.00,VWS V14.01,2013-06-04 14:16:00,
2013-06-04 10:17:00,80.8,80.3,29.94,SSE,152,8.6,12.9,99,0.00,,SKC,0.00,VWS V14.01,2013-06-04 14:17:00,
2013-06-04 10:19:00,80.6,80.1,29.94,South,180,10.8,12.9,98,0.00,,SKC,0.00,VWS V14.01,2013-06-04 14:19:00,
2013-06-04 10:20:00,80.5,80.0,29.94,SSE,166,8.5,12.9,98,0.00,,SKC,0.00,VWS V14.01,2013-06-04 14:20:00,
2013-06-04 10:21:00,80.5,80.2,29.94,SW,236,6.2,12.9,99,0.00,,SKC,0.00,VWS V14.01,2013-06-04 14:21:00,
2013-06-04 10:22:00,80.7,80.4,29.94,SSW,193,5.9,12.9,99,0.00,,SKC,0.00,VWS V14.01,2013-06-04 14:22:00,
2013-06-04 10:24:00,80.9,80.5,29.94,South,186,6.1,12.9,99,0.00,,SKC,0.00,VWS V14.01,2013-06-04 14:24:00,
2013-06-04 10:25:00,80.8,80.5,29.94,South,170,4.2,12.9,99,0.00,,SKC,0.00,VWS V14.01,2013-06-04 14:25:00,
2013-06-04 10:26:00,80.9,80.6,29.94,SSE,149,6.5,12.9,99,0.00,,SKC,0.00,VWS V14.01,2013-06-04 14:26:00,
2013-06-04 10:27:00,80.8,80.3,29.94,SSE,158,9.4,13.1,98,0.00,,SKC,0.00,VWS V14.01,2013-06-04 14:27:00,
2013-06-04 10:29:00,80.8,80.3,29.94,SSW,202,9.4,13.1,98,0.00,,SKC,0.00,VWS V14.01,2013-06-04 14:29:00,
2013-06-04 10:30:00,80.8,80.3,29.94,SSW,202,5.3,13.1,98,0.00,,SKC,0.00,VWS V14.01,2013-06-04 14:30:00,
2013-06-04 10:31:00,80.7,80.2,29.94,SSE,165,8.9,13.1,98,0.00,,SKC,0.00,VWS V14.01,2013-06-04 14:31:00,
2013-06-04 10:33:00,80.9,80.4,29.94,SSE,166,5.2,13.1,98,0.00,,SKC,0.00,VWS V14.01,2013-06-04 14:33:00,
2013-06-04 10:34:00,80.9,80.4,29.94,South,188,4.8,13.1,98,0.00,,SKC,0.00,VWS V14.01,2013-06-04 14:34:00,
2013-06-04 10:35:00,80.9,80.5,29.94,South,183,7.0,13.1,99,0.00,,SKC,0.00,VWS V14.01,2013-06-04 14:35:00,
2013-06-04 10:37:00,81.1,80.5,29.94,SSW,212,3.2,13.1,98,0.00,,SKC,0.00,VWS V14.01,2013-06-04 14:37:00,
2013-06-04 10:38:00,81.2,80.7,29.94,South,173,4.8,13.1,98,0.00,,SKC,0.00,VWS V14.01,2013-06-04 14:38:00,
2013-06-04 10:39:00,81.3,80.6,29.94,South,173,7.6,13.1,98,0.00,,SKC,0.00,VWS V14.01,2013-06-04 14:39:00,
2013-06-04 10:40:00,81.3,80.6,29.94,SW,218,7.1,13.1,98,0.00,,SKC,0.00,VWS V14.01,2013-06-04 14:40:00,
2013-06-04 10:42:00,81.4,80.6,29.95,South,169,7.9,13.1,98,0.00,,SKC,0.00,VWS V14.01,2013-06-04 14:42:00,
2013-06-04 10:43:00,81.5,80.6,29.95,SSE,165,6.1,13.1,97,0.00,,SKC,0.00,VWS V14.01,2013-06-04 14:43:00,
2013-06-04 10:44:00,81.3,80.4,29.94,SSE,163,8.0,13.1,97,0.00,,SKC,0.00,VWS V14.01,2013-06-04 14:44:00,
2013-06-04 10:45:00,81.4,80.5,29.94,South,177,8.1,13.1,97,0.00,,SKC,0.00,VWS V14.01,2013-06-04 14:45:00,
2013-06-04 10:47:00,81.5,80.6,29.94,SSE,167,3.4,13.1,97,0.00,,SKC,0.00,VWS V14.01,2013-06-04 14:47:00,
2013-06-04 10:48:00,81.5,80.5,29.94,SSW,195,2.1,13.1,97,0.00,,SKC,0.00,VWS V14.01,2013-06-04 14:48:00,
2013-06-04 10:50:00,81.4,80.7,29.95,South,173,3.4,13.1,97,0.00,,SKC,0.00,VWS V14.01,2013-06-04 14:50:00,
2013-06-04 10:53:00,81.5,80.4,29.95,South,186,7.5,13.1,96,0.00,,SKC,0.00,VWS V14.01,2013-06-04 14:53:00,
2013-06-04 10:55:00,81.5,80.3,29.95,SSW,211,0.0,13.1,96,0.00,,SKC,0.00,VWS V14.01,2013-06-04 14:55:00,
2013-06-04 10:58:00,81.4,80.4,29.95,North,359,0.9,13.1,97,0.00,,SKC,0.00,VWS V14.01,2013-06-04 14:58:00,
2013-06-04 11:00:00,81.4,80.2,29.95,SSW,207,9.3,13.1,96,0.00,,SKC,0.00,VWS V14.01,2013-06-04 15:00:00,
2013-06-04 11:03:00,81.4,80.4,29.95,North,359,5.0,13.1,97,0.00,,SKC,0.00,VWS V14.01,2013-06-04 15:03:00,
2013-06-04 11:05:00,81.3,80.5,29.95,South,181,4.0,13.1,97,0.00,,SKC,0.00,VWS V14.01,2013-06-04 15:05:00,
2013-06-04 11:07:00,81.6,80.8,29.95,North,359,0.4,13.1,97,0.00,,SKC,0.00,VWS V14.01,2013-06-04 15:07:00,
2013-06-04 11:08:00,81.6,80.6,29.95,SSW,205,0.4,13.1,97,0.00,,SKC,0.00,VWS V14.01,2013-06-04 15:08:00,
2013-06-04 11:10:00,81.6,80.5,29.95,South,180,6.5,13.1,96,0.00,,SKC,0.00,VWS V14.01,2013-06-04 15:10:00,
2013-06-04 11:12:00,81.7,80.8,29.95,SW,232,4.0,13.1,97,0.00,,SKC,0.00,VWS V14.01,2013-06-04 15:12:00,
2013-06-04 11:13:00,81.8,81.0,29.95,SSW,208,3.9,13.1,97,0.00,,SKC,0.00,VWS V14.01,2013-06-04 15:13:00,
2013-06-04 11:15:00,81.9,80.7,29.95,South,186,8.8,13.1,96,0.00,,SKC,0.00,VWS V14.01,2013-06-04 15:15:00,
2013-06-04 11:18:00,81.9,80.8,29.95,SSW,210,0.0,13.1,96,0.00,,SKC,0.00,VWS V14.01,2013-06-04 15:18:00,
2013-06-04 11:20:00,81.7,80.6,29.95,South,191,4.9,13.1,96,0.00,,SKC,0.00,VWS V14.01,2013-06-04 15:20:00,
2013-06-04 11:23:00,81.8,80.6,29.95,South,190,9.6,13.1,96,0.00,,SKC,0.00,VWS V14.01,2013-06-04 15:23:00,
2013-06-04 11:24:00,81.5,80.2,29.95,South,179,2.1,13.1,96,0.00,,SKC,0.00,VWS V14.01,2013-06-04 15:24:00,
2013-06-04 11:25:00,81.5,80.2,29.95,SSW,204,7.4,13.4,96,0.00,,SKC,0.00,VWS V14.01,2013-06-04 15:25:00,
2013-06-04 11:26:00,81.3,80.1,29.95,SSE,167,1.7,13.4,96,0.00,,SKC,0.00,VWS V14.01,2013-06-04 15:26:00,
2013-06-04 11:28:00,81.6,80.5,29.95,SSW,200,0.0,13.4,96,0.00,,SKC,0.00,VWS V14.01,2013-06-04 15:28:00,
2013-06-04 11:29:00,81.7,80.6,29.95,SSW,197,6.8,13.4,96,0.00,,SKC,0.00,VWS V14.01,2013-06-04 15:29:00,
2013-06-04 11:31:00,81.8,80.7,29.95,South,180,9.1,13.4,96,0.00,,SKC,0.00,VWS V14.01,2013-06-04 15:31:00,
2013-06-04 11:33:00,81.8,80.5,29.95,South,187,4.2,13.4,96,0.00,,SKC,0.00,VWS V14.01,2013-06-04 15:33:00,
2013-06-04 11:34:00,81.9,80.6,29.95,SSE,158,7.6,13.4,96,0.00,,SKC,0.00,VWS V14.01,2013-06-04 15:34:00,
2013-06-04 11:36:00,81.9,80.4,29.95,SSW,197,6.5,13.4,95,0.00,,SKC,0.00,VWS V14.01,2013-06-04 15:36:00,
2013-06-04 11:38:00,81.8,80.3,29.95,SSW,194,9.6,13.4,95,0.00,,SKC,0.00,VWS V14.01,2013-06-04 15:38:00,
2013-06-04 11:39:00,81.8,80.4,29.95,SSE,167,5.0,13.4,95,0.00,,SKC,0.00,VWS V14.01,2013-06-04 15:39:00,
2013-06-04 11:41:00,82.1,80.8,29.95,SW,232,0.7,13.4,96,0.00,,SKC,0.00,VWS V14.01,2013-06-04 15:41:00,
2013-06-04 11:42:00,82.2,80.9,29.95,SW,232,6.0,13.4,96,0.00,,SKC,0.00,VWS V14.01,2013-06-04 15:42:00,
2013-06-04 11:43:00,82.4,81.2,29.95,North,359,0.0,13.4,96,0.00,,SKC,0.00,VWS V14.01,2013-06-04 15:43:00,
2013-06-04 11:44:00,82.3,81.1,29.95,North,359,1.1,13.4,96,0.00,,SKC,0.00,VWS V14.01,2013-06-04 15:44:00,
2013-06-04 11:47:00,82.5,81.1,29.95,North,359,0.3,13.4,96,0.00,,SKC,0.00,VWS V14.01,2013-06-04 15:47:00,
2013-06-04 11:48:00,82.4,81.0,29.95,North,359,0.2,13.4,96,0.00,,SKC,0.00,VWS V14.01,2013-06-04 15:48:00,
2013-06-04 11:49:00,82.3,80.9,29.95,North,359,0.9,13.4,95,0.00,,SKC,0.00,VWS V14.01,2013-06-04 15:49:00,
2013-06-04 11:52:00,82.3,80.9,29.95,North,359,0.8,13.4,96,0.00,,SKC,0.00,VWS V14.01,2013-06-04 15:52:00,
2013-06-04 11:53:00,82.3,81.0,29.95,North,359,0.6,13.4,96,0.00,,SKC,0.00,VWS V14.01,2013-06-04 15:53:00,
2013-06-04 11:54:00,82.2,80.9,29.95,North,359,0.0,13.4,96,0.00,,SKC,0.00,VWS V14.01,2013-06-04 15:54:00,
2013-06-04 11:57:00,82.2,81.0,29.95,North,359,9.6,13.4,96,0.00,,SKC,0.00,VWS V14.01,2013-06-04 15:57:00,
2013-06-04 11:58:00,82.2,81.0,29.95,South,183,4.4,13.5,96,0.00,,SKC,0.00,VWS V14.01,2013-06-04 15:58:00,
2013-06-04 11:59:00,82.2,80.8,29.95,South,187,0.9,13.5,95,0.00,,SKC,0.00,VWS V14.01,2013-06-04 15:59:00,
2013-06-04 12:00:00,82.2,80.8,29.95,North,359,9.3,13.5,96,0.00,,SKC,0.00,VWS V14.01,2013-06-04 16:00:00,
2013-06-04 12:02:00,82.2,80.8,29.95,WSW,242,3.7,13.5,96,0.00,,SKC,0.00,VWS V14.01,2013-06-04 16:02:00,
2013-06-04 12:04:00,82.3,81.0,29.95,SSW,202,3.9,13.5,96,0.00,,SKC,0.00,VWS V14.01,2013-06-04 16:04:00,
2013-06-04 12:05:00,82.2,80.9,29.95,North,359,7.8,13.5,96,0.00,,SKC,0.00,VWS V14.01,2013-06-04 16:05:00,
2013-06-04 12:07:00,82.3,81.1,29.95,South,180,6.2,13.5,96,0.00,,SKC,0.00,VWS V14.01,2013-06-04 16:07:00,
2013-06-04 12:09:00,82.3,80.9,29.95,SW,215,8.9,13.5,96,0.00,,SKC,0.00,VWS V14.01,2013-06-04 16:09:00,
2013-06-04 12:10:00,82.4,81.1,29.95,SSW,194,5.0,13.5,96,0.00,,SKC,0.00,VWS V14.01,2013-06-04 16:10:00,
2013-06-04 12:12:00,82.3,80.9,29.95,South,183,0.0,13.5,95,0.00,,SKC,0.00,VWS V14.01,2013-06-04 16:12:00,
2013-06-04 12:14:00,82.4,81.1,29.95,SSW,208,6.2,13.5,96,0.00,,SKC,0.00,VWS V14.01,2013-06-04 16:14:00,
2013-06-04 12:15:00,82.4,80.9,29.95,South,184,8.3,13.5,95,0.00,,SKC,0.00,VWS V14.01,2013-06-04 16:15:00,
2013-06-04 12:16:00,82.3,80.8,29.95,South,177,6.6,13.5,95,0.00,,SKC,0.00,VWS V14.01,2013-06-04 16:16:00,
2013-06-04 12:17:00,82.2,80.8,29.95,SSE,159,2.7,13.5,96,0.00,,SKC,0.00,VWS V14.01,2013-06-04 16:17:00,
2013-06-04 12:19:00,82.5,81.1,29.95,South,173,4.5,13.5,96,0.00,,SKC,0.00,VWS V14.01,2013-06-04 16:19:00,
2013-06-04 12:20:00,82.5,81.0,29.95,SSE,158,0.0,13.5,95,0.00,,SKC,0.00,VWS V14.01,2013-06-04 16:20:00,
2013-06-04 12:21:00,82.5,81.0,29.95,SSE,158,0.0,13.5,95,0.00,,SKC,0.00,VWS V14.01,2013-06-04 16:21:00,
2013-06-04 12:22:00,82.6,81.1,29.95,SSW,202,0.0,13.5,95,0.00,,SKC,0.00,VWS V14.01,2013-06-04 16:22:00,
2013-06-04 12:24:00,82.6,80.7,29.95,SSE,163,10.8,13.5,94,0.00,,SKC,0.00,VWS V14.01,2013-06-04 16:24:00,
2013-06-04 12:25:00,82.3,80.5,29.95,South,177,2.5,13.5,94,0.00,,SKC,0.00,VWS V14.01,2013-06-04 16:25:00,
2013-06-04 12:26:00,82.3,80.5,29.95,South,173,4.0,13.5,94,0.00,,SKC,0.00,VWS V14.01,2013-06-04 16:26:00,
2013-06-04 12:27:00,82.2,80.7,29.95,SSE,159,0.0,13.5,95,0.00,,SKC,0.00,VWS V14.01,2013-06-04 16:27:00,
2013-06-04 12:28:00,82.2,80.7,29.95,SSE,159,0.0,13.5,95,0.00,,SKC,0.00,VWS V14.01,2013-06-04 16:28:00,
2013-06-04 12:29:00,82.2,80.7,29.95,SSE,159,0.0,13.5,95,0.00,,SKC,0.00,VWS V14.01,2013-06-04 16:29:00,
2013-06-04 12:30:00,82.3,80.7,29.95,SSE,165,9.6,13.5,95,0.00,,SKC,0.00,VWS V14.01,2013-06-04 16:30:00,
2013-06-04 12:31:00,82.3,80.6,29.95,SSE,165,6.5,13.5,95,0.00,,SKC,0.00,VWS V14.01,2013-06-04 16:31:00,
2013-06-04 12:32:00,82.1,80.6,29.95,SSW,212,0.0,13.5,95,0.00,,SKC,0.00,VWS V14.01,2013-06-04 16:32:00,
2013-06-04 12:33:00,82.2,80.7,29.95,SSW,212,0.0,13.5,95,0.00,,SKC,0.00,VWS V14.01,2013-06-04 16:33:00,
2013-06-04 12:34:00,82.2,80.8,29.95,SSW,212,0.0,13.5,96,0.00,,SKC,0.00,VWS V14.01,2013-06-04 16:34:00,
2013-06-04 12:35:00,82.5,81.0,29.95,SW,215,6.5,13.5,95,0.00,,SKC,0.00,VWS V14.01,2013-06-04 16:35:00,
2013-06-04 12:36:00,82.5,81.0,29.95,SSW,205,8.9,13.5,95,0.00,,SKC,0.00,VWS V14.01,2013-06-04 16:36:00,
2013-06-04 12:37:00,82.4,80.7,29.95,South,180,8.8,13.5,95,0.00,,SKC,0.00,VWS V14.01,2013-06-04 16:37:00,
2013-06-04 12:38:00,82.4,80.6,29.95,SSW,200,5.2,13.5,95,0.00,,SKC,0.00,VWS V14.01,2013-06-04 16:38:00,
2013-06-04 12:39:00,82.5,80.9,29.95,South,181,8.6,13.5,95,0.00,,SKC,0.00,VWS V14.01,2013-06-04 16:39:00,
2013-06-04 12:40:00,82.4,80.6,29.95,South,180,7.5,13.5,94,0.00,,SKC,0.00,VWS V14.01,2013-06-04 16:40:00,
2013-06-04 12:41:00,82.3,80.5,29.95,South,181,6.6,13.5,94,0.00,,SKC,0.00,VWS V14.01,2013-06-04 16:41:00,
2013-06-04 12:43:00,82.4,80.9,29.95,SW,229,6.2,13.5,95,0.00,,SKC,0.00,VWS V14.01,2013-06-04 16:43:00,
2013-06-04 12:44:00,82.6,81.0,29.95,South,180,5.0,13.5,95,0.00,,SKC,0.00,VWS V14.01,2013-06-04 16:44:00,
2013-06-04 12:46:00,82.7,81.2,29.95,SSW,204,5.4,13.5,95,0.00,,SKC,0.00,VWS V14.01,2013-06-04 16:46:00,
2013-06-04 12:48:00,82.9,81.4,29.95,South,176,7.5,13.5,95,0.00,,SKC,0.00,VWS V14.01,2013-06-04 16:48:00,
2013-06-04 12:49:00,82.9,81.1,29.95,SSE,159,0.0,13.5,94,0.00,,SKC,0.00,VWS V14.01,2013-06-04 16:49:00,
2013-06-04 12:51:00,82.9,80.3,29.95,SSE,155,3.2,13.5,92,0.00,,SKC,0.00,VWS V14.01,2013-06-04 16:51:00,
2013-06-04 12:53:00,82.8,80.6,29.95,South,169,4.5,13.5,93,0.00,,SKC,0.00,VWS V14.01,2013-06-04 16:53:00,
2013-06-04 12:55:00,82.6,80.3,29.95,SSW,204,5.9,13.5,93,0.00,,SKC,0.00,VWS V14.01,2013-06-04 16:55:00,
2013-06-04 12:56:00,82.7,80.9,29.95,South,180,4.8,13.5,94,0.00,,SKC,0.00,VWS V14.01,2013-06-04 16:56:00,
2013-06-04 12:57:00,82.7,81.0,29.95,SSW,207,5.2,13.5,94,0.00,,SKC,0.00,VWS V14.01,2013-06-04 16:57:00,
2013-06-04 12:58:00,82.8,81.3,29.95,South,172,5.8,13.5,95,0.00,,SKC,0.00,VWS V14.01,2013-06-04 16:58:00,
2013-06-04 13:00:00,82.7,81.5,29.95,South,181,6.3,13.5,96,0.00,,SKC,0.00,VWS V14.01,2013-06-04 17:00:00,
2013-06-04 13:01:00,82.8,81.5,29.95,South,186,2.5,13.5,96,0.00,,SKC,0.00,VWS V14.01,2013-06-04 17:01:00,
2013-06-04 13:02:00,82.8,81.5,29.95,South,174,9.0,13.5,96,0.00,,SKC,0.00,VWS V14.01,2013-06-04 17:02:00,
2013-06-04 13:03:00,82.8,81.7,29.95,South,191,5.0,13.5,96,0.00,,SKC,0.00,VWS V14.01,2013-06-04 17:03:00,
2013-06-04 13:05:00,83.0,81.7,29.95,SSW,194,6.2,13.5,96,0.00,,SKC,0.00,VWS V14.01,2013-06-04 17:05:00,
2013-06-04 13:07:00,83.1,81.4,29.95,South,170,8.4,13.5,94,0.00,,SKC,0.00,VWS V14.01,2013-06-04 17:07:00,
2013-06-04 13:08:00,83.1,81.5,29.95,South,177,9.7,13.5,95,0.00,,SKC,0.00,VWS V14.01,2013-06-04 17:08:00,
2013-06-04 13:09:00,83.1,81.5,29.95,SSW,198,5.2,13.5,95,0.00,,SKC,0.00,VWS V14.01,2013-06-04 17:09:00,
2013-06-04 13:10:00,83.0,81.4,29.95,SSW,208,6.2,13.5,95,0.00,,SKC,0.00,VWS V14.01,2013-06-04 17:10:00,
2013-06-04 13:12:00,83.1,81.7,29.95,SSW,194,6.1,13.5,95,0.00,,SKC,0.00,VWS V14.01,2013-06-04 17:12:00,
2013-06-04 13:13:00,83.2,81.7,29.95,SSW,198,9.1,13.5,95,0.00,,SKC,0.00,VWS V14.01,2013-06-04 17:13:00,
2013-06-04 13:14:00,83.2,81.6,29.95,SSE,167,4.8,13.5,95,0.00,,SKC,0.00,VWS V14.01,2013-06-04 17:14:00,
2013-06-04 13:15:00,83.2,81.8,29.95,South,181,2.5,13.5,95,0.00,,SKC,0.00,VWS V14.01,2013-06-04 17:15:00,
2013-06-04 13:17:00,83.2,81.6,29.95,North,359,0.2,13.5,95,0.00,,SKC,0.00,VWS V14.01,2013-06-04 17:17:00,
2013-06-04 13:19:00,83.0,81.5,29.95,SW,217,5.2,13.5,95,0.00,,SKC,0.00,VWS V14.01,2013-06-04 17:19:00,
2013-06-04 13:20:00,82.6,81.1,29.95,North,359,6.2,13.5,95,0.00,,SKC,0.00,VWS V14.01,2013-06-04 17:20:00,
2013-06-04 13:22:00,82.7,81.4,29.95,South,170,2.9,13.5,96,0.00,,SKC,0.00,VWS V14.01,2013-06-04 17:22:00,
2013-06-04 13:24:00,82.8,81.6,29.95,SSW,201,4.5,13.5,96,0.00,,SKC,0.00,VWS V14.01,2013-06-04 17:24:00,
2013-06-04 13:25:00,82.8,81.4,29.95,SSE,167,6.6,13.5,96,0.00,,SKC,0.00,VWS V14.01,2013-06-04 17:25:00,
2013-06-04 13:27:00,82.7,81.3,29.95,North,359,0.0,13.5,96,0.00,,SKC,0.00,VWS V14.01,2013-06-04 17:27:00,
2013-06-04 13:28:00,82.8,81.4,29.95,South,191,8.4,13.5,96,0.00,,SKC,0.00,VWS V14.01,2013-06-04 17:28:00,
2013-06-04 13:29:00,82.9,81.6,29.95,SSW,204,6.5,13.5,96,0.00,,SKC,0.00,VWS V14.01,2013-06-04 17:29:00,
2013-06-04 13:30:00,83.0,81.6,29.95,SSW,201,0.0,13.5,95,0.00,,SKC,0.00,VWS V14.01,2013-06-04 17:30:00,
2013-06-04 13:32:00,83.1,81.4,29.95,South,183,6.4,13.5,95,0.00,,SKC,0.00,VWS V14.01,2013-06-04 17:32:00,
2013-06-04 13:33:00,83.2,81.5,29.95,SSW,205,0.3,13.5,95,0.00,,SKC,0.00,VWS V14.01,2013-06-04 17:33:00,
2013-06-04 13:34:00,83.1,81.5,29.95,SW,219,0.0,13.5,95,0.00,,SKC,0.00,VWS V14.01,2013-06-04 17:34:00,
2013-06-04 13:35:00,82.9,81.5,29.95,SSW,202,0.0,13.5,95,0.00,,SKC,0.00,VWS V14.01,2013-06-04 17:35:00,
2013-06-04 13:37:00,83.0,81.7,29.95,SSW,202,0.0,13.5,96,0.00,,SKC,0.00,VWS V14.01,2013-06-04 17:37:00,
2013-06-04 13:38:00,83.1,81.8,29.95,SSW,202,0.0,13.5,96,0.00,,SKC,0.00,VWS V14.01,2013-06-04 17:38:00,
2013-06-04 13:39:00,83.2,81.7,29.95,South,188,6.0,13.5,95,0.00,,SKC,0.00,VWS V14.01,2013-06-04 17:39:00,
2013-06-04 13:41:00,83.1,81.5,29.95,SSW,205,2.0,13.5,95,0.00,,SKC,0.00,VWS V14.01,2013-06-04 17:41:00,
2013-06-04 13:43:00,83.1,81.5,29.95,North,359,2.2,13.5,95,0.00,,SKC,0.00,VWS V14.01,2013-06-04 17:43:00,
2013-06-04 13:44:00,83.0,81.5,29.95,SW,214,2.4,13.5,95,0.00,,SKC,0.00,VWS V14.01,2013-06-04 17:44:00,
2013-06-04 13:45:00,83.1,81.6,29.95,SW,222,0.4,13.5,95,0.00,,SKC,0.00,VWS V14.01,2013-06-04 17:45:00,
2013-06-04 13:47:00,83.1,81.7,29.95,South,191,0.0,13.5,95,0.00,,SKC,0.00,VWS V14.01,2013-06-04 17:47:00,
2013-06-04 13:48:00,83.1,81.6,29.95,SSW,200,5.0,13.5,95,0.00,,SKC,0.00,VWS V14.01,2013-06-04 17:48:00,
2013-06-04 13:49:00,83.0,81.5,29.95,SW,215,6.0,13.5,95,0.00,,SKC,0.00,VWS V14.01,2013-06-04 17:49:00,
2013-06-04 13:50:00,83.0,81.5,29.95,SW,215,2.1,13.5,95,0.00,,SKC,0.00,VWS V14.01,2013-06-04 17:50:00,
2013-06-04 13:52:00,82.8,81.3,29.95,SSW,194,0.0,13.5,95,0.00,,SKC,0.00,VWS V14.01,2013-06-04 17:52:00,
2013-06-04 13:53:00,82.7,81.3,29.95,SSW,194,0.0,13.5,95,0.00,,SKC,0.00,VWS V14.01,2013-06-04 17:53:00,
2013-06-04 13:54:00,82.9,81.4,29.95,North,359,9.3,13.5,95,0.00,,SKC,0.00,VWS V14.01,2013-06-04 17:54:00,
2013-06-04 13:55:00,82.9,81.5,29.95,SSW,200,5.1,13.5,96,0.00,,SKC,0.00,VWS V14.01,2013-06-04 17:55:00,
2013-06-04 13:57:00,83.0,81.7,29.95,SW,221,4.3,13.5,96,0.00,,SKC,0.00,VWS V14.01,2013-06-04 17:57:00,
2013-06-04 13:58:00,83.0,81.6,29.95,North,359,0.2,13.5,96,0.00,,SKC,0.00,VWS V14.01,2013-06-04 17:58:00,
2013-06-04 13:59:00,83.1,81.8,29.95,North,359,5.0,13.5,96,0.00,,SKC,0.00,VWS V14.01,2013-06-04 17:59:00,
2013-06-04 14:00:00,83.1,81.7,29.95,North,359,0.2,13.5,96,0.00,,SKC,0.00,VWS V14.01,2013-06-04 18:00:00,
2013-06-04 14:02:00,83.4,82.1,29.95,SW,222,4.7,13.5,96,0.00,,SKC,0.00,VWS V14.01,2013-06-04 18:02:00,
2013-06-04 14:03:00,83.4,81.8,29.95,North,359,0.2,13.5,96,0.00,,SKC,0.00,VWS V14.01,2013-06-04 18:03:00,
2013-06-04 14:05:00,83.3,81.5,29.95,SW,219,8.4,13.5,94,0.00,,SKC,0.00,VWS V14.01,2013-06-04 18:05:00,
2013-06-04 14:06:00,83.3,81.5,29.95,SSW,207,5.8,13.5,94,0.00,,SKC,0.00,VWS V14.01,2013-06-04 18:06:00,
2013-06-04 14:07:00,83.3,81.5,29.95,SW,228,4.0,13.5,94,0.00,,SKC,0.00,VWS V14.01,2013-06-04 18:07:00,
2013-06-04 14:08:00,83.4,81.7,29.95,South,183,3.2,13.5,95,0.00,,SKC,0.00,VWS V14.01,2013-06-04 18:08:00,
2013-06-04 14:09:00,83.4,81.7,29.95,SSW,198,2.9,13.5,94,0.00,,SKC,0.00,VWS V14.01,2013-06-04 18:09:00,
2013-06-04 14:10:00,83.4,81.3,29.95,WSW,239,0.0,13.5,94,0.00,,SKC,0.00,VWS V14.01,2013-06-04 18:10:00,
2013-06-04 14:12:00,83.5,81.3,29.95,SW,221,4.8,13.5,93,0.00,,SKC,0.00,VWS V14.01,2013-06-04 18:12:00,
2013-06-04 14:13:00,83.4,81.4,29.95,SW,218,3.5,13.5,94,0.00,,SKC,0.00,VWS V14.01,2013-06-04 18:13:00,
2013-06-04 14:14:00,83.5,81.6,29.95,North,359,1.9,13.5,94,0.00,,SKC,0.00,VWS V14.01,2013-06-04 18:14:00,
2013-06-04 14:15:00,83.5,81.9,29.95,SSW,200,2.4,13.5,95,0.00,,SKC,0.00,VWS V14.01,2013-06-04 18:15:00,
2013-06-04 14:17:00,83.4,81.5,29.95,SSE,160,10.8,13.5,94,0.00,,SKC,0.00,VWS V14.01,2013-06-04 18:17:00,
2013-06-04 14:18:00,83.4,81.6,29.95,SW,222,5.5,13.5,94,0.00,,SKC,0.00,VWS V14.01,2013-06-04 18:18:00,
2013-06-04 14:19:00,83.4,81.7,29.95,South,180,7.4,13.5,94,0.00,,SKC,0.00,VWS V14.01,2013-06-04 18:19:00,
2013-06-04 14:21:00,83.3,81.5,29.95,SSW,197,4.5,13.5,94,0.00,,SKC,0.00,VWS V14.01,2013-06-04 18:21:00,
2013-06-04 14:22:00,83.2,81.6,29.95,South,188,7.1,13.5,95,0.00,,SKC,0.00,VWS V14.01,2013-06-04 18:22:00,
2013-06-04 14:23:00,83.1,81.6,29.95,SW,236,0.0,13.5,95,0.00,,SKC,0.00,VWS V14.01,2013-06-04 18:23:00,
2013-06-04 14:24:00,83.1,81.7,29.95,SW,236,0.0,13.5,95,0.00,,SKC,0.00,VWS V14.01,2013-06-04 18:24:00,
2013-06-04 14:26:00,83.1,81.7,29.95,SW,214,0.0,13.5,96,0.00,,SKC,0.00,VWS V14.01,2013-06-04 18:26:00,
2013-06-04 14:27:00,83.1,81.5,29.95,SSW,208,0.0,13.5,95,0.00,,SKC,0.00,VWS V14.01,2013-06-04 18:27:00,
2013-06-04 14:28:00,83.0,81.4,29.95,SSW,208,5.2,13.5,95,0.00,,SKC,0.00,VWS V14.01,2013-06-04 18:28:00,
2013-06-04 14:29:00,83.0,81.5,29.95,North,359,0.0,13.5,95,0.00,,SKC,0.00,VWS V14.01,2013-06-04 18:29:00,
2013-06-04 14:31:00,82.6,80.9,29.95,North,359,0.0,13.5,94,0.00,,SKC,0.00,VWS V14.01,2013-06-04 18:31:00,
2013-06-04 14:32:00,82.4,81.0,29.95,North,359,0.9,13.5,96,0.00,,SKC,0.00,VWS V14.01,2013-06-04 18:32:00,
2013-06-04 14:34:00,82.4,81.0,29.95,SSW,211,7.1,13.5,96,0.00,,SKC,0.00,VWS V14.01,2013-06-04 18:34:00,
2013-06-04 14:37:00,82.5,81.2,29.95,North,359,0.9,13.5,96,0.00,,SKC,0.00,VWS V14.01,2013-06-04 18:37:00,
2013-06-04 14:39:00,82.4,81.3,29.94,SSW,201,4.4,13.5,97,0.00,,SKC,0.00,VWS V14.01,2013-06-04 18:39:00,
2013-06-04 14:40:00,82.4,81.4,29.94,South,173,12.1,13.5,97,0.00,,SKC,0.00,VWS V14.01,2013-06-04 18:40:00,
2013-06-04 14:42:00,82.5,81.4,29.94,North,359,0.0,13.5,97,0.00,,SKC,0.00,VWS V14.01,2013-06-04 18:42:00,
2013-06-04 14:44:00,82.5,81.5,29.94,South,179,0.0,13.5,97,0.00,,SKC,0.00,VWS V14.01,2013-06-04 18:44:00,
2013-06-04 14:45:00,82.6,81.4,29.94,South,188,3.5,13.5,96,0.00,,SKC,0.00,VWS V14.01,2013-06-04 18:45:00,
2013-06-04 14:47:00,82.7,81.4,29.94,South,176,3.5,13.5,96,0.00,,SKC,0.00,VWS V14.01,2013-06-04 18:47:00,
2013-06-04 14:49:00,82.9,81.5,29.94,SW,231,0.0,13.5,96,0.00,,SKC,0.00,VWS V14.01,2013-06-04 18:49:00,
2013-06-04 14:50:00,82.9,81.4,29.94,SSW,194,7.0,13.5,95,0.00,,SKC,0.00,VWS V14.01,2013-06-04 18:50:00,
2013-06-04 14:52:00,82.8,81.4,29.94,SSW,204,5.8,13.5,96,0.00,,SKC,0.00,VWS V14.01,2013-06-04 18:52:00,
2013-06-04 14:53:00,82.9,81.7,29.94,SW,228,1.7,13.5,96,0.00,,SKC,0.00,VWS V14.01,2013-06-04 18:53:00,
2013-06-04 14:54:00,83.1,81.8,29.94,SW,221,0.3,13.5,96,0.00,,SKC,0.00,VWS V14.01,2013-06-04 18:54:00,
2013-06-04 14:55:00,83.0,81.7,29.94,South,174,4.2,13.5,96,0.00,,SKC,0.00,VWS V14.01,2013-06-04 18:55:00,
2013-06-04 14:57:00,83.2,81.8,29.94,South,180,4.8,13.5,95,0.00,,SKC,0.00,VWS V14.01,2013-06-04 18:57:00,
2013-06-04 14:58:00,83.3,81.8,29.94,SW,218,2.7,13.5,95,0.00,,SKC,0.00,VWS V14.01,2013-06-04 18:58:00,
2013-06-04 14:59:00,83.1,81.6,29.94,SSW,193,6.8,13.5,95,0.00,,SKC,0.00,VWS V14.01,2013-06-04 18:59:00,
2013-06-04 15:00:00,83.1,81.5,29.94,South,191,10.4,13.5,95,0.00,,SKC,0.00,VWS V14.01,2013-06-04 19:00:00,
2013-06-04 15:02:00,83.1,81.6,29.94,SW,215,2.1,13.5,95,0.00,,SKC,0.00,VWS V14.01,2013-06-04 19:02:00,
2013-06-04 15:03:00,83.2,81.7,29.94,SSW,212,7.3,13.5,95,0.00,,SKC,0.00,VWS V14.01,2013-06-04 19:03:00,
2013-06-04 15:04:00,83.3,81.8,29.94,North,359,2.5,13.5,95,0.00,,SKC,0.00,VWS V14.01,2013-06-04 19:04:00,
2013-06-04 15:05:00,83.2,81.7,29.94,SSW,200,0.0,13.5,95,0.00,,SKC,0.00,VWS V14.01,2013-06-04 19:05:00,
2013-06-04 15:07:00,83.1,81.6,29.94,SSW,194,0.0,13.5,95,0.00,,SKC,0.00,VWS V14.01,2013-06-04 19:07:00,
2013-06-04 15:08:00,83.1,81.7,29.94,South,176,3.5,13.5,96,0.00,,SKC,0.00,VWS V14.01,2013-06-04 19:08:00,
2013-06-04 15:09:00,83.1,81.8,29.94,South,180,7.4,13.5,96,0.00,,SKC,0.00,VWS V14.01,2013-06-04 19:09:00,
2013-06-04 15:10:00,83.2,81.8,29.94,SW,233,6.3,13.5,96,0.00,,SKC,0.00,VWS V14.01,2013-06-04 19:10:00,
2013-06-04 15:12:00,82.8,81.4,29.93,North,359,0.7,13.5,95,0.00,,SKC,0.00,VWS V14.01,2013-06-04 19:12:00,
2013-06-04 15:13:00,82.7,81.3,29.94,SW,217,0.0,13.5,96,0.00,,SKC,0.00,VWS V14.01,2013-06-04 19:13:00,
2013-06-04 15:15:00,82.7,81.4,29.94,SSW,204,3.8,13.5,96,0.00,,SKC,0.00,VWS V14.01,2013-06-04 19:15:00,
2013-06-04 15:17:00,82.7,81.4,29.94,WSW,239,5.4,13.5,96,0.00,,SKC,0.00,VWS V14.01,2013-06-04 19:17:00,
2013-06-04 15:18:00,82.8,81.3,29.94,SW,224,1.2,13.5,95,0.00,,SKC,0.00,VWS V14.01,2013-06-04 19:18:00,
2013-06-04 15:20:00,82.6,81.2,29.93,SSE,159,5.0,13.5,95,0.00,,SKC,0.00,VWS V14.01,2013-06-04 19:20:00,
2013-06-04 15:22:00,82.7,81.3,29.93,SSW,205,6.7,13.5,96,0.00,,SKC,0.00,VWS V14.01,2013-06-04 19:22:00,
2013-06-04 15:23:00,82.4,81.1,29.93,SSW,211,0.0,13.5,96,0.00,,SKC,0.00,VWS V14.01,2013-06-04 19:23:00,
2013-06-04 15:25:00,82.4,81.2,29.93,South,188,4.0,13.5,96,0.00,,SKC,0.00,VWS V14.01,2013-06-04 19:25:00,
2013-06-04 15:26:00,82.5,81.3,29.93,SE,143,3.9,13.5,96,0.00,,SKC,0.00,VWS V14.01,2013-06-04 19:26:00,
2013-06-04 15:28:00,82.7,81.3,29.93,SE,143,0.0,13.5,96,0.00,,SKC,0.00,VWS V14.01,2013-06-04 19:28:00,
2013-06-04 15:29:00,82.8,81.3,29.93,North,359,0.0,13.5,95,0.00,,SKC,0.00,VWS V14.01,2013-06-04 19:29:00,
2013-06-04 15:30:00,82.9,81.6,29.93,North,359,0.0,13.5,96,0.00,,SKC,0.00,VWS V14.01,2013-06-04 19:30:00,
2013-06-04 15:31:00,83.0,81.7,29.93,North,359,0.0,13.5,96,0.00,,SKC,0.00,VWS V14.01,2013-06-04 19:31:00,
2013-06-04 15:33:00,83.0,81.7,29.93,North,359,0.8,13.5,96,0.00,,SKC,0.00,VWS V14.01,2013-06-04 19:33:00,
2013-06-04 15:34:00,83.0,81.7,29.93,SSW,211,0.0,13.5,96,0.00,,SKC,0.00,VWS V14.01,2013-06-04 19:34:00,
2013-06-04 15:35:00,83.0,81.6,29.92,South,181,0.0,13.5,96,0.00,,SKC,0.00,VWS V14.01,2013-06-04 19:35:00,
2013-06-04 15:36:00,83.0,81.6,29.92,South,181,0.0,13.5,96,0.00,,SKC,0.00,VWS V14.01,2013-06-04 19:36:00,
2013-06-04 15:38:00,83.0,81.6,29.93,South,181,0.0,13.5,95,0.00,,SKC,0.00,VWS V14.01,2013-06-04 19:38:00,
2013-06-04 15:39:00,83.0,81.5,29.92,South,169,6.1,13.5,95,0.00,,SKC,0.00,VWS V14.01,2013-06-04 19:39:00,
2013-06-04 15:40:00,83.1,81.6,29.93,SW,225,0.0,13.5,95,0.00,,SKC,0.00,VWS V14.01,2013-06-04 19:40:00,
2013-06-04 15:41:00,83.1,81.4,29.93,SW,215,4.6,13.5,94,0.00,,SKC,0.00,VWS V14.01,2013-06-04 19:41:00,
2013-06-04 15:43:00,82.9,80.7,29.92,South,172,11.1,13.5,93,0.00,,SKC,0.00,VWS V14.01,2013-06-04 19:43:00,
2013-06-04 15:45:00,82.7,80.8,29.93,South,172,0.0,13.5,94,0.00,,SKC,0.00,VWS V14.01,2013-06-04 19:45:00,
2013-06-04 15:46:00,82.7,80.8,29.93,South,172,0.0,13.5,94,0.00,,SKC,0.00,VWS V14.01,2013-06-04 19:46:00,
2013-06-04 15:48:00,82.8,81.4,29.92,South,186,0.0,13.5,96,0.00,,SKC,0.00,VWS V14.01,2013-06-04 19:48:00,
2013-06-04 15:50:00,82.8,81.4,29.92,South,186,0.0,13.5,96,0.00,,SKC,0.00,VWS V14.01,2013-06-04 19:50:00,
2013-06-04 15:51:00,82.9,81.3,29.92,SW,224,0.7,13.5,95,0.00,,SKC,0.00,VWS V14.01,2013-06-04 19:51:00,
2013-06-04 15:53:00,82.9,81.6,29.93,North,359,0.0,13.5,96,0.00,,SKC,0.00,VWS V14.01,2013-06-04 19:53:00,
2013-06-04 15:55:00,82.8,81.5,29.93,South,172,9.8,13.5,96,0.00,,SKC,0.00,VWS V14.01,2013-06-04 19:55:00,
2013-06-04 15:56:00,82.9,81.5,29.93,South,174,4.0,13.5,96,0.00,,SKC,0.00,VWS V14.01,2013-06-04 19:56:00,
2013-06-04 15:57:00,82.9,81.4,29.93,South,173,4.7,13.5,95,0.00,,SKC,0.00,VWS V14.01,2013-06-04 19:57:00,
2013-06-04 15:58:00,82.9,81.4,29.92,SSW,211,9.2,13.5,95,0.00,,SKC,0.00,VWS V14.01,2013-06-04 19:58:00,
2013-06-04 16:00:00,83.0,81.6,29.93,North,359,0.2,13.5,95,0.00,,SKC,0.00,VWS V14.01,2013-06-04 20:00:00,
2013-06-04 16:01:00,82.9,81.5,29.93,SW,218,8.1,13.5,95,0.00,,SKC,0.00,VWS V14.01,2013-06-04 20:01:00,
2013-06-04 16:02:00,83.0,81.7,29.92,SW,219,3.8,13.5,96,0.00,,SKC,0.00,VWS V14.01,2013-06-04 20:02:00,
2013-06-04 16:03:00,83.1,81.8,29.92,SSW,211,0.0,13.5,96,0.00,,SKC,0.00,VWS V14.01,2013-06-04 20:03:00,
2013-06-04 16:05:00,83.0,81.7,29.92,SW,219,0.0,13.5,96,0.00,,SKC,0.00,VWS V14.01,2013-06-04 20:05:00,
2013-06-04 16:06:00,83.0,81.5,29.92,SW,228,0.0,13.5,96,0.00,,SKC,0.00,VWS V14.01,2013-06-04 20:06:00,
2013-06-04 16:08:00,82.7,81.3,29.92,SSW,193,8.1,13.5,96,0.00,,SKC,0.00,VWS V14.01,2013-06-04 20:08:00,
2013-06-04 16:09:00,82.6,81.1,29.92,SSE,166,1.1,13.5,95,0.00,,SKC,0.00,VWS V14.01,2013-06-04 20:09:00,
2013-06-04 16:11:00,82.5,81.3,29.92,North,359,0.0,13.5,96,0.00,,SKC,0.00,VWS V14.01,2013-06-04 20:11:00,
2013-06-04 16:12:00,82.4,81.3,29.92,North,359,0.0,13.5,96,0.00,,SKC,0.00,VWS V14.01,2013-06-04 20:12:00,
2013-06-04 16:13:00,82.4,81.3,29.92,North,359,6.4,13.5,96,0.00,,SKC,0.00,VWS V14.01,2013-06-04 20:13:00,
2013-06-04 16:14:00,82.5,81.2,29.92,SSW,211,0.2,13.5,96,0.00,,SKC,0.00,VWS V14.01,2013-06-04 20:14:00,
2013-06-04 16:16:00,82.4,81.2,29.92,SSW,193,5.2,13.5,96,0.00,,SKC,0.00,VWS V14.01,2013-06-04 20:16:00,
2013-06-04 16:17:00,82.5,81.1,29.92,SSE,166,0.0,13.5,96,0.00,,SKC,0.00,VWS V14.01,2013-06-04 20:17:00,
2013-06-04 16:18:00,82.4,81.0,29.92,SSE,166,0.0,13.5,95,0.00,,SKC,0.00,VWS V14.01,2013-06-04 20:18:00,
2013-06-04 16:19:00,82.4,80.9,29.92,SSE,166,0.0,13.5,95,0.00,,SKC,0.00,VWS V14.01,2013-06-04 20:19:00,
2013-06-04 16:21:00,82.3,80.9,29.92,North,359,0.0,13.5,96,0.00,,SKC,0.00,VWS V14.01,2013-06-04 20:21:00,
2013-06-04 16:22:00,82.4,81.1,29.92,SSW,194,8.1,13.5,96,0.00,,SKC,0.00,VWS V14.01,2013-06-04 20:22:00,
2013-06-04 16:23:00,82.4,81.1,29.92,South,191,5.3,13.5,96,0.00,,SKC,0.00,VWS V14.01,2013-06-04 20:23:00,
2013-06-04 16:24:00,82.4,81.2,29.92,North,359,0.9,13.5,96,0.00,,SKC,0.00,VWS V14.01,2013-06-04 20:24:00,
2013-06-04 16:26:00,82.6,81.3,29.92,North,359,0.0,13.5,96,0.00,,SKC,0.00,VWS V14.01,2013-06-04 20:26:00,
2013-06-04 16:27:00,82.6,81.2,29.92,SSW,198,0.0,13.5,96,0.00,,SKC,0.00,VWS V14.01,2013-06-04 20:27:00,
2013-06-04 16:28:00,82.7,81.4,29.92,SSW,198,0.0,13.5,96,0.00,,SKC,0.00,VWS V14.01,2013-06-04 20:28:00,
2013-06-04 16:29:00,82.6,81.3,29.91,South,183,6.8,13.5,96,0.00,,SKC,0.00,VWS V14.01,2013-06-04 20:29:00,
2013-06-04 16:31:00,82.7,81.4,29.91,SSW,208,0.3,13.5,96,0.00,,SKC,0.00,VWS V14.01,2013-06-04 20:31:00,
2013-06-04 16:33:00,82.8,81.5,29.91,South,190,2.7,13.5,96,0.00,,SKC,0.00,VWS V14.01,2013-06-04 20:33:00,
2013-06-04 16:34:00,82.8,81.5,29.91,South,180,3.2,13.5,96,0.00,,SKC,0.00,VWS V14.01,2013-06-04 20:34:00,
2013-06-04 16:36:00,82.7,81.4,29.91,South,188,9.3,13.5,96,0.00,,SKC,0.00,VWS V14.01,2013-06-04 20:36:00,
2013-06-04 16:38:00,82.7,81.5,29.91,South,191,4.9,13.5,96,0.00,,SKC,0.00,VWS V14.01,2013-06-04 20:38:00,
2013-06-04 16:39:00,82.8,81.4,29.91,WSW,255,6.9,13.5,96,0.00,,SKC,0.00,VWS V14.01,2013-06-04 20:39:00,
2013-06-04 16:41:00,82.5,81.1,29.91,SSW,195,7.5,13.5,96,0.00,,SKC,0.00,VWS V14.01,2013-06-04 20:41:00,
2013-06-04 16:43:00,82.4,81.2,29.91,SSW,195,7.3,13.5,96,0.00,,SKC,0.00,VWS V14.01,2013-06-04 20:43:00,
2013-06-04 16:44:00,82.3,81.3,29.90,SSW,195,0.0,13.5,97,0.00,,SKC,0.00,VWS V14.01,2013-06-04 20:44:00,
2013-06-04 16:47:00,82.4,81.4,29.90,South,180,0.0,13.5,97,0.00,,SKC,0.00,VWS V14.01,2013-06-04 20:47:00,
2013-06-04 16:48:00,82.5,81.4,29.91,North,359,11.7,13.5,96,0.00,,SKC,0.00,VWS V14.01,2013-06-04 20:48:00,
2013-06-04 16:49:00,82.5,81.4,29.91,North,359,11.7,13.5,96,0.00,,SKC,0.00,VWS V14.01,2013-06-04 20:49:00,
2013-06-04 16:52:00,82.2,81.2,29.91,WSW,238,2.9,13.5,97,0.00,,SKC,0.00,VWS V14.01,2013-06-04 20:52:00,
2013-06-04 16:54:00,82.3,81.4,29.91,SW,226,9.8,13.5,97,0.00,,SKC,0.00,VWS V14.01,2013-06-04 20:54:00,
2013-06-04 16:55:00,82.3,81.4,29.90,South,191,7.1,13.5,97,0.00,,SKC,0.00,VWS V14.01,2013-06-04 20:55:00,
2013-06-04 16:57:00,82.1,81.1,29.90,SSW,208,7.5,13.5,97,0.00,,SKC,0.00,VWS V14.01,2013-06-04 20:57:00,
2013-06-04 16:59:00,82.1,81.1,29.90,North,359,0.0,13.5,97,0.00,,SKC,0.00,VWS V14.01,2013-06-04 20:59:00,
2013-06-04 17:00:00,82.1,81.1,29.90,North,359,9.4,13.5,97,0.00,,SKC,0.00,VWS V14.01,2013-06-04 21:00:00,
2013-06-04 17:02:00,81.9,80.9,29.91,North,359,0.0,13.5,97,0.00,,SKC,0.00,VWS V14.01,2013-06-04 21:02:00,
2013-06-04 17:04:00,81.8,80.7,29.91,SSW,207,7.1,13.5,97,0.00,,SKC,0.00,VWS V14.01,2013-06-04 21:04:00,
2013-06-04 17:05:00,81.6,80.6,29.91,North,359,0.3,13.5,97,0.00,,SKC,0.00,VWS V14.01,2013-06-04 21:05:00,
2013-06-04 17:07:00,81.4,80.5,29.90,SSW,193,0.0,13.5,97,0.00,,SKC,0.00,VWS V14.01,2013-06-04 21:07:00,
2013-06-04 17:09:00,81.4,80.5,29.90,North,359,0.0,13.5,97,0.00,,SKC,0.00,VWS V14.01,2013-06-04 21:09:00,
2013-06-04 17:10:00,81.3,80.3,29.90,SSW,197,10.7,13.5,97,0.00,,SKC,0.00,VWS V14.01,2013-06-04 21:10:00,
2013-06-04 17:12:00,81.4,80.5,29.90,North,359,0.0,13.5,97,0.00,,SKC,0.00,VWS V14.01,2013-06-04 21:12:00,
2013-06-04 17:14:00,81.4,80.6,29.90,North,359,7.5,13.5,97,0.00,,SKC,0.00,VWS V14.01,2013-06-04 21:14:00,
2013-06-04 17:15:00,81.4,80.5,29.90,SSW,194,9.6,13.5,97,0.00,,SKC,0.00,VWS V14.01,2013-06-04 21:15:00,
2013-06-04 17:17:00,81.4,80.7,29.90,North,359,0.0,13.5,98,0.00,,SKC,0.00,VWS V14.01,2013-06-04 21:17:00,
2013-06-04 17:19:00,81.6,80.8,29.90,SSE,167,3.5,13.5,97,0.00,,SKC,0.00,VWS V14.01,2013-06-04 21:19:00,
2013-06-04 17:20:00,81.6,80.9,29.91,South,170,4.4,13.5,98,0.00,,SKC,0.00,VWS V14.01,2013-06-04 21:20:00,
2013-06-04 17:21:00,81.9,81.2,29.91,SSW,200,5.2,13.5,98,0.00,,SKC,0.00,VWS V14.01,2013-06-04 21:21:00,
2013-06-04 17:23:00,82.1,81.4,29.91,North,359,0.0,13.5,98,0.00,,SKC,0.00,VWS V14.01,2013-06-04 21:23:00,
2013-06-04 17:25:00,82.0,81.0,29.90,SW,228,2.3,14.2,97,0.00,,SKC,0.00,VWS V14.01,2013-06-04 21:25:00,
2013-06-04 17:27:00,82.1,81.2,29.90,SSW,204,7.8,14.2,97,0.00,,SKC,0.00,VWS V14.01,2013-06-04 21:27:00,
2013-06-04 17:28:00,82.1,81.2,29.90,SW,214,7.1,14.2,97,0.00,,SKC,0.00,VWS V14.01,2013-06-04 21:28:00,
2013-06-04 17:30:00,82.0,81.1,29.90,South,174,0.0,14.2,97,0.00,,SKC,0.00,VWS V14.01,2013-06-04 21:30:00,
2013-06-04 17:32:00,82.0,81.1,29.90,North,359,4.3,14.2,97,0.00,,SKC,0.00,VWS V14.01,2013-06-04 21:32:00,
2013-06-04 17:33:00,82.1,81.0,29.91,SW,229,0.3,14.2,97,0.00,,SKC,0.00,VWS V14.01,2013-06-04 21:33:00,
2013-06-04 17:35:00,82.1,81.0,29.90,North,359,0.0,14.2,96,0.00,,SKC,0.00,VWS V14.01,2013-06-04 21:35:00,
2013-06-04 17:36:00,82.2,81.1,29.90,North,359,0.0,14.2,97,0.00,,SKC,0.00,VWS V14.01,2013-06-04 21:36:00,
2013-06-04 17:37:00,82.2,81.2,29.90,SSW,193,4.8,14.2,97,0.00,,SKC,0.00,VWS V14.01,2013-06-04 21:37:00,
2013-06-04 17:38:00,82.1,81.1,29.90,SSW,193,0.0,14.2,97,0.00,,SKC,0.00,VWS V14.01,2013-06-04 21:38:00,
2013-06-04 17:40:00,82.2,81.1,29.90,North,359,0.8,14.2,96,0.00,,SKC,0.00,VWS V14.01,2013-06-04 21:40:00,
2013-06-04 17:41:00,82.3,81.2,29.90,North,359,0.0,14.2,96,0.00,,SKC,0.00,VWS V14.01,2013-06-04 21:41:00,
2013-06-04 17:42:00,82.1,81.1,29.91,SSW,193,4.7,14.2,97,0.00,,SKC,0.00,VWS V14.01,2013-06-04 21:42:00,
2013-06-04 17:43:00,82.2,81.2,29.90,North,359,1.6,14.2,97,0.00,,SKC,0.00,VWS V14.01,2013-06-04 21:43:00,
2013-06-04 17:46:00,82.0,81.0,29.91,SW,229,6.2,14.2,97,0.00,,SKC,0.00,VWS V14.01,2013-06-04 21:46:00,
2013-06-04 17:47:00,81.9,81.0,29.91,South,184,10.6,14.2,97,0.00,,SKC,0.00,VWS V14.01,2013-06-04 21:47:00,
2013-06-04 17:48:00,82.0,81.2,29.90,North,359,3.3,14.2,97,0.00,,SKC,0.00,VWS V14.01,2013-06-04 21:48:00,
2013-06-04 17:51:00,82.1,81.1,29.90,SSW,201,3.8,14.2,97,0.00,,SKC,0.00,VWS V14.01,2013-06-04 21:51:00,
2013-06-04 17:52:00,82.0,81.0,29.90,SW,215,0.0,14.2,97,0.00,,SKC,0.00,VWS V14.01,2013-06-04 21:52:00,
2013-06-04 17:53:00,81.9,80.8,29.90,SW,222,9.2,14.2,97,0.00,,SKC,0.00,VWS V14.01,2013-06-04 21:53:00,
2013-06-04 17:56:00,81.9,81.0,29.91,SW,235,4.3,14.2,97,0.00,,SKC,0.00,VWS V14.01,2013-06-04 21:56:00,
2013-06-04 17:57:00,81.8,80.9,29.91,North,359,1.3,14.2,97,0.00,,SKC,0.00,VWS V14.01,2013-06-04 21:57:00,
2013-06-04 17:58:00,81.6,80.8,29.91,South,172,8.1,14.2,98,0.00,,SKC,0.00,VWS V14.01,2013-06-04 21:58:00,
2013-06-04 17:59:00,81.6,80.8,29.91,SSW,194,8.5,14.2,97,0.00,,SKC,0.00,VWS V14.01,2013-06-04 21:59:00,
2013-06-04 18:01:00,81.7,80.7,29.90,North,359,0.0,14.2,97,0.00,,SKC,0.00,VWS V14.01,2013-06-04 22:01:00,
2013-06-04 18:02:00,81.8,80.8,29.90,SW,221,0.0,14.2,97,0.00,,SKC,0.00,VWS V14.01,2013-06-04 22:02:00,
2013-06-04 18:03:00,81.7,80.7,29.90,North,359,0.0,14.2,97,0.00,,SKC,0.00,VWS V14.01,2013-06-04 22:03:00,
2013-06-04 18:04:00,81.8,81.0,29.90,SW,217,8.3,14.2,97,0.00,,SKC,0.00,VWS V14.01,2013-06-04 22:04:00,
2013-06-04 18:06:00,81.9,80.9,29.90,North,359,5.9,14.2,97,0.00,,SKC,0.00,VWS V14.01,2013-06-04 22:06:00,
2013-06-04 18:07:00,81.7,80.4,29.90,SSW,207,0.0,14.2,96,0.00,,SKC,0.00,VWS V14.01,2013-06-04 22:07:00,
2013-06-04 18:08:00,81.7,80.4,29.90,North,359,0.0,14.2,96,0.00,,SKC,0.00,VWS V14.01,2013-06-04 22:08:00,
2013-06-04 18:10:00,81.6,80.3,29.90,SSW,201,5.2,14.2,96,0.00,,SKC,0.00,VWS V14.01,2013-06-04 22:10:00,
2013-06-04 18:11:00,81.5,80.4,29.90,SSW,194,5.5,14.2,96,0.00,,SKC,0.00,VWS V14.01,2013-06-04 22:11:00,
2013-06-04 18:12:00,81.5,80.3,29.90,South,191,0.0,14.2,96,0.00,,SKC,0.00,VWS V14.01,2013-06-04 22:12:00,
2013-06-04 18:13:00,81.5,80.4,29.90,SW,217,0.0,14.2,96,0.00,,SKC,0.00,VWS V14.01,2013-06-04 22:13:00,
2013-06-04 18:15:00,81.5,80.3,29.90,SW,217,0.0,14.2,96,0.00,,SKC,0.00,VWS V14.01,2013-06-04 22:15:00,
2013-06-04 18:16:00,81.5,80.5,29.90,North,359,0.0,14.2,97,0.00,,SKC,0.00,VWS V14.01,2013-06-04 22:16:00,
2013-06-04 18:17:00,81.6,80.7,29.90,North,359,0.3,14.2,97,0.00,,SKC,0.00,VWS V14.01,2013-06-04 22:17:00,
2013-06-04 18:18:00,81.5,80.6,29.90,SSW,208,0.0,14.2,97,0.00,,SKC,0.00,VWS V14.01,2013-06-04 22:18:00,
2013-06-04 18:20:00,81.5,80.6,29.89,SSW,208,0.0,14.2,97,0.00,,SKC,0.00,VWS V14.01,2013-06-04 22:20:00,
2013-06-04 18:22:00,81.4,80.5,29.89,North,359,0.0,14.2,97,0.00,,SKC,0.00,VWS V14.01,2013-06-04 22:22:00,
2013-06-04 18:23:00,81.4,80.5,29.90,North,359,0.0,14.2,97,0.00,,SKC,0.00,VWS V14.01,2013-06-04 22:23:00,
2013-06-04 18:25:00,81.5,80.5,29.89,North,359,1.7,14.2,97,0.00,,SKC,0.00,VWS V14.01,2013-06-04 22:25:00,
2013-06-04 18:27:00,81.4,80.6,29.90,South,179,6.7,14.2,97,0.00,,SKC,0.00,VWS V14.01,2013-06-04 22:27:00,
2013-06-04 18:28:00,81.4,80.4,29.90,North,359,3.5,14.2,97,0.00,,SKC,0.00,VWS V14.01,2013-06-04 22:28:00,
2013-06-04 18:30:00,81.4,80.6,29.90,South,186,0.2,14.2,97,0.00,,SKC,0.00,VWS V14.01,2013-06-04 22:30:00,
2013-06-04 18:32:00,81.3,80.4,29.89,South,181,8.7,14.2,97,0.00,,SKC,0.00,VWS V14.01,2013-06-04 22:32:00,
2013-06-04 18:33:00,81.2,80.3,29.89,SSW,205,7.7,14.2,97,0.00,,SKC,0.00,VWS V14.01,2013-06-04 22:33:00,
2013-06-04 18:35:00,81.2,80.3,29.90,North,359,0.0,14.2,97,0.00,,SKC,0.00,VWS V14.01,2013-06-04 22:35:00,
2013-06-04 18:37:00,81.1,80.4,29.89,North,359,0.0,14.2,98,0.00,,SKC,0.00,VWS V14.01,2013-06-04 22:37:00,
2013-06-04 18:38:00,81.2,80.4,29.89,North,359,1.2,14.2,98,0.00,,SKC,0.00,VWS V14.01,2013-06-04 22:38:00,
2013-06-04 18:40:00,81.0,80.3,29.89,SW,235,1.4,14.2,98,0.00,,SKC,0.00,VWS V14.01,2013-06-04 22:40:00,
2013-06-04 18:42:00,81.2,80.4,29.89,North,359,0.0,14.2,97,0.00,,SKC,0.00,VWS V14.01,2013-06-04 22:42:00,
2013-06-04 18:43:00,81.1,80.3,29.89,North,359,0.0,14.2,97,0.00,,SKC,0.00,VWS V14.01,2013-06-04 22:43:00,
2013-06-04 18:44:00,81.2,80.2,29.90,SW,235,0.0,14.2,97,0.00,,SKC,0.00,VWS V14.01,2013-06-04 22:44:00,
2013-06-04 18:45:00,81.3,80.3,29.89,South,187,0.6,14.2,97,0.00,,SKC,0.00,VWS V14.01,2013-06-04 22:45:00,
2013-06-04 18:47:00,81.3,80.5,29.89,South,186,6.5,14.2,97,0.00,,SKC,0.00,VWS V14.01,2013-06-04 22:47:00,
2013-06-04 18:48:00,81.5,80.7,29.89,SSE,166,6.6,14.2,97,0.00,,SKC,0.00,VWS V14.01,2013-06-04 22:48:00,
2013-06-04 18:49:00,81.3,80.5,29.89,WSW,239,6.3,14.2,97,0.00,,SKC,0.00,VWS V14.01,2013-06-04 22:49:00,
2013-06-04 18:50:00,81.4,80.7,29.90,SSE,159,7.7,14.2,98,0.00,,SKC,0.00,VWS V14.01,2013-06-04 22:50:00,
2013-06-04 18:52:00,81.6,80.8,29.89,SSW,198,4.8,14.2,98,0.00,,SKC,0.00,VWS V14.01,2013-06-04 22:52:00,
2013-06-04 18:53:00,81.5,80.7,29.90,SSE,167,0.0,14.2,98,0.00,,SKC,0.00,VWS V14.01,2013-06-04 22:53:00,
2013-06-04 18:54:00,81.6,80.7,29.90,South,191,7.2,14.2,98,0.00,,SKC,0.00,VWS V14.01,2013-06-04 22:54:00,
2013-06-04 18:55:00,81.7,80.9,29.90,South,173,0.3,14.2,97,0.00,,SKC,0.00,VWS V14.01,2013-06-04 22:55:00,
2013-06-04 18:57:00,81.6,80.6,29.90,South,181,6.8,14.2,97,0.00,,SKC,0.00,VWS V14.01,2013-06-04 22:57:00,
2013-06-04 18:58:00,81.6,80.6,29.90,SSW,197,9.3,14.2,97,0.00,,SKC,0.00,VWS V14.01,2013-06-04 22:58:00,
2013-06-04 18:59:00,81.6,80.6,29.90,South,179,6.8,14.2,97,0.00,,SKC,0.00,VWS V14.01,2013-06-04 22:59:00,
2013-06-04 19:00:00,81.6,80.6,29.89,SSW,200,3.2,14.2,97,0.00,,SKC,0.00,VWS V14.01,2013-06-04 23:00:00,
2013-06-04 19:03:00,81.4,80.3,29.89,SSE,162,10.1,14.4,96,0.00,,SKC,0.00,VWS V14.01,2013-06-04 23:03:00,
2013-06-04 19:04:00,81.4,80.2,29.89,SSE,155,4.7,14.4,96,0.00,,SKC,0.00,VWS V14.01,2013-06-04 23:04:00,
2013-06-04 19:06:00,81.2,80.2,29.89,SSE,167,6.8,14.4,97,0.00,,SKC,0.00,VWS V14.01,2013-06-04 23:06:00,
2013-06-04 19:08:00,81.0,80.1,29.90,SSE,163,7.1,14.4,97,0.00,,SKC,0.00,VWS V14.01,2013-06-04 23:08:00,
2013-06-04 19:09:00,81.0,80.1,29.90,SSW,195,3.9,14.4,97,0.00,,SKC,0.00,VWS V14.01,2013-06-04 23:09:00,
2013-06-04 19:11:00,81.0,80.2,29.90,South,183,6.7,14.4,97,0.00,,SKC,0.00,VWS V14.01,2013-06-04 23:11:00,
2013-06-04 19:13:00,81.1,80.3,29.90,SSW,198,9.7,14.4,98,0.00,,SKC,0.00,VWS V14.01,2013-06-04 23:13:00,
2013-06-04 19:14:00,81.1,80.4,29.89,SSW,210,0.4,14.4,98,0.00,,SKC,0.00,VWS V14.01,2013-06-04 23:14:00,
2013-06-04 19:15:00,81.0,80.3,29.89,South,190,6.5,14.4,98,0.00,,SKC,0.00,VWS V14.01,2013-06-04 23:15:00,
2013-06-04 19:16:00,80.9,80.2,29.90,SSW,197,6.7,14.4,98,0.00,,SKC,0.00,VWS V14.01,2013-06-04 23:16:00,
2013-06-04 19:18:00,80.9,80.3,29.90,South,179,8.2,14.4,98,0.00,,SKC,0.00,VWS V14.01,2013-06-04 23:18:00,
2013-06-04 19:19:00,80.9,80.3,29.90,SW,236,5.4,14.4,98,0.00,,SKC,0.00,VWS V14.01,2013-06-04 23:19:00,
2013-06-04 19:20:00,80.9,80.3,29.90,South,181,3.4,14.4,98,0.00,,SKC,0.00,VWS V14.01,2013-06-04 23:20:00,
2013-06-04 19:21:00,80.8,80.2,29.90,South,191,0.0,14.4,98,0.00,,SKC,0.00,VWS V14.01,2013-06-04 23:21:00,
2013-06-04 19:24:00,80.7,80.2,29.90,North,359,0.2,14.4,98,0.00,,SKC,0.00,VWS V14.01,2013-06-04 23:24:00,
2013-06-04 19:25:00,80.7,80.2,29.89,SW,233,8.0,14.4,98,0.00,,SKC,0.00,VWS V14.01,2013-06-04 23:25:00,
2013-06-04 19:26:00,80.5,80.1,29.89,SSW,201,0.0,14.4,99,0.00,,SKC,0.00,VWS V14.01,2013-06-04 23:26:00,
2013-06-04 19:29:00,80.5,80.2,29.90,North,359,1.9,14.4,99,0.00,,SKC,0.00,VWS V14.01,2013-06-04 23:29:00,
2013-06-04 19:30:00,80.3,80.0,29.90,North,359,1.6,14.4,99,0.00,,SKC,0.00,VWS V14.01,2013-06-04 23:30:00,
2013-06-04 19:31:00,80.5,80.3,29.90,South,176,10.1,14.4,99,0.00,,SKC,0.00,VWS V14.01,2013-06-04 23:31:00,
2013-06-04 19:34:00,80.4,80.2,29.90,SSW,210,5.8,14.4,99,0.00,,SKC,0.00,VWS V14.01,2013-06-04 23:34:00,
2013-06-04 19:35:00,80.5,80.3,29.90,South,187,5.7,14.4,99,0.00,,SKC,0.00,VWS V14.01,2013-06-04 23:35:00,
2013-06-04 19:37:00,80.4,80.2,29.90,SW,219,7.3,14.4,99,0.00,,SKC,0.00,VWS V14.01,2013-06-04 23:37:00,
2013-06-04 19:39:00,80.4,80.2,29.90,SSW,200,5.7,14.4,99,0.00,,SKC,0.00,VWS V14.01,2013-06-04 23:39:00,
2013-06-04 19:40:00,80.4,80.2,29.90,South,181,4.6,14.4,99,0.00,,SKC,0.00,VWS V14.01,2013-06-04 23:40:00,
2013-06-04 19:42:00,80.3,80.0,29.89,SSW,210,6.6,14.4,99,0.00,,SKC,0.00,VWS V14.01,2013-06-04 23:42:00,
2013-06-04 19:44:00,80.2,80.0,29.90,South,184,8.2,14.4,99,0.00,,SKC,0.00,VWS V14.01,2013-06-04 23:44:00,
2013-06-04 19:45:00,80.2,80.0,29.90,South,191,4.9,14.4,99,0.00,,SKC,0.00,VWS V14.01,2013-06-04 23:45:00,
2013-06-04 19:47:00,80.3,80.2,29.90,SSW,202,5.7,14.4,100,0.00,,SKC,0.00,VWS V14.01,2013-06-04 23:47:00,
2013-06-04 19:49:00,80.2,80.1,29.90,SSW,200,3.9,14.4,100,0.00,,SKC,0.00,VWS V14.01,2013-06-04 23:49:00,
2013-06-04 19:50:00,80.2,80.1,29.90,South,170,7.8,14.4,100,0.00,,SKC,0.00,VWS V14.01,2013-06-04 23:50:00,
2013-06-04 19:52:00,80.3,80.3,29.90,South,174,6.2,14.4,100,0.00,,SKC,0.00,VWS V14.01,2013-06-04 23:52:00,
2013-06-04 19:54:00,80.4,80.4,29.90,South,173,6.6,14.4,100,0.00,,SKC,0.00,VWS V14.01,2013-06-04 23:54:00,
2013-06-04 19:55:00,80.3,80.3,29.90,South,179,11.8,14.4,100,0.00,,SKC,0.00,VWS V14.01,2013-06-04 23:55:00,
2013-06-04 19:57:00,80.3,80.1,29.91,South,183,7.3,14.4,99,0.00,,SKC,0.00,VWS V14.01,2013-06-04 23:57:00,
2013-06-04 20:00:00,80.2,80.0,29.91,South,181,11.7,14.4,99,0.00,,SKC,0.00,VWS V14.01,2013-06-05 00:00:00,
2013-06-04 20:01:00,80.2,80.0,29.91,WSW,239,7.1,14.4,99,0.00,,SKC,0.00,VWS V14.01,2013-06-05 00:01:00,
2013-06-04 20:02:00,80.2,80.0,29.91,SSE,159,6.8,14.4,99,0.00,,SKC,0.00,VWS V14.01,2013-06-05 00:02:00,
2013-06-04 20:05:00,80.1,80.0,29.91,North,359,0.0,14.4,100,0.00,,SKC,0.00,VWS V14.01,2013-06-05 00:05:00,
2013-06-04 20:06:00,80.1,80.0,29.91,North,359,0.5,14.4,100,0.00,,SKC,0.00,VWS V14.01,2013-06-05 00:06:00,
2013-06-04 20:07:00,80.1,80.0,29.91,North,359,0.0,14.4,100,0.00,,SKC,0.00,VWS V14.01,2013-06-05 00:07:00,
2013-06-04 20:10:00,80.0,79.9,29.92,North,359,0.0,14.4,100,0.00,,SKC,0.00,VWS V14.01,2013-06-05 00:10:00,
2013-06-04 20:11:00,80.1,80.0,29.92,North,359,9.8,14.4,100,0.00,,SKC,0.00,VWS V14.01,2013-06-05 00:11:00,
2013-06-04 20:13:00,80.0,80.0,29.92,South,188,0.0,14.4,100,0.00,,SKC,0.00,VWS V14.01,2013-06-05 00:13:00,
2013-06-04 20:15:00,80.0,80.0,29.92,SSW,204,0.0,14.4,100,0.00,,SKC,0.00,VWS V14.01,2013-06-05 00:15:00,
2013-06-04 20:16:00,80.0,79.9,29.92,North,359,0.0,14.4,100,0.00,,SKC,0.00,VWS V14.01,2013-06-05 00:16:00,
2013-06-04 20:18:00,79.9,80.0,29.91,SSW,210,0.7,14.4,100,0.00,,SKC,0.00,VWS V14.01,2013-06-05 00:18:00,
2013-06-04 20:20:00,80.0,80.0,29.91,North,359,0.0,14.4,100,0.00,,SKC,0.00,VWS V14.01,2013-06-05 00:20:00,
2013-06-04 20:21:00,80.0,80.0,29.91,North,359,0.0,14.4,100,0.00,,SKC,0.00,VWS V14.01,2013-06-05 00:21:00,
2013-06-04 20:22:00,80.0,80.0,29.92,North,359,0.0,14.4,100,0.00,,SKC,0.00,VWS V14.01,2013-06-05 00:22:00,
2013-06-04 20:23:00,80.0,80.0,29.92,North,359,0.0,14.4,100,0.00,,SKC,0.00,VWS V14.01,2013-06-05 00:23:00,
2013-06-04 20:25:00,79.9,79.9,29.91,North,359,0.0,14.4,100,0.00,,SKC,0.00,VWS V14.01,2013-06-05 00:25:00,
2013-06-04 20:27:00,79.9,79.9,29.91,North,359,0.4,14.4,100,0.00,,SKC,0.00,VWS V14.01,2013-06-05 00:27:00,
2013-06-04 20:28:00,79.9,79.9,29.91,South,177,0.0,14.4,100,0.00,,SKC,0.00,VWS V14.01,2013-06-05 00:28:00,
2013-06-04 20:30:00,79.9,79.9,29.91,North,359,0.0,14.4,100,0.00,,SKC,0.00,VWS V14.01,2013-06-05 00:30:00,
2013-06-04 20:31:00,79.9,79.9,29.91,North,359,3.7,14.4,100,0.00,,SKC,0.00,VWS V14.01,2013-06-05 00:31:00,
2013-06-04 20:32:00,79.9,79.9,29.90,South,188,9.6,14.4,100,0.00,,SKC,0.00,VWS V14.01,2013-06-05 00:32:00,
2013-06-04 20:33:00,79.9,79.9,29.90,SSE,162,6.4,14.4,100,0.00,,SKC,0.00,VWS V14.01,2013-06-05 00:33:00,
2013-06-04 20:35:00,79.8,79.8,29.89,North,359,0.0,14.4,100,0.00,,SKC,0.00,VWS V14.01,2013-06-05 00:35:00,
2013-06-04 20:36:00,79.8,79.8,29.89,North,359,0.0,14.4,100,0.00,,SKC,0.00,VWS V14.01,2013-06-05 00:36:00,
2013-06-04 20:37:00,79.8,79.8,29.90,North,359,0.2,14.4,100,0.00,,SKC,0.00,VWS V14.01,2013-06-05 00:37:00,
2013-06-04 20:38:00,79.8,79.8,29.89,North,359,0.2,14.4,100,0.00,,SKC,0.00,VWS V14.01,2013-06-05 00:38:00,
2013-06-04 20:40:00,79.8,79.8,29.90,North,359,0.0,14.4,100,0.00,,SKC,0.00,VWS V14.01,2013-06-05 00:40:00,
2013-06-04 20:41:00,79.8,79.8,29.90,South,187,0.0,14.4,100,0.00,,SKC,0.00,VWS V14.01,2013-06-05 00:41:00,
2013-06-04 20:42:00,79.8,79.8,29.90,South,187,0.0,14.4,100,0.00,,SKC,0.00,VWS V14.01,2013-06-05 00:42:00,
2013-06-04 20:43:00,79.8,79.8,29.90,SSW,195,7.3,14.4,100,0.00,,SKC,0.00,VWS V14.01,2013-06-05 00:43:00,
2013-06-04 20:44:00,79.8,79.8,29.90,SSW,195,0.0,14.4,100,0.00,,SKC,0.00,VWS V14.01,2013-06-05 00:44:00,
2013-06-04 20:45:00,79.8,79.8,29.90,South,191,3.9,14.4,100,0.00,,SKC,0.00,VWS V14.01,2013-06-05 00:45:00,
2013-06-04 20:47:00,79.8,79.8,29.90,South,188,0.0,14.4,100,0.00,,SKC,0.00,VWS V14.01,2013-06-05 00:47:00,
2013-06-04 20:48:00,79.8,79.8,29.90,South,173,14.7,14.7,100,0.00,,SKC,0.00,VWS V14.01,2013-06-05 00:48:00,
2013-06-04 20:49:00,79.7,79.7,29.89,SSW,202,4.0,14.7,100,0.00,,SKC,0.00,VWS V14.01,2013-06-05 00:49:00,
2013-06-04 20:51:00,79.7,79.7,29.89,North,359,0.0,14.7,100,0.00,,SKC,0.00,VWS V14.01,2013-06-05 00:51:00,
2013-06-04 20:52:00,79.7,79.7,29.89,SSW,195,8.1,14.7,100,0.00,,SKC,0.00,VWS V14.01,2013-06-05 00:52:00,
2013-06-04 20:53:00,79.8,79.8,29.89,South,173,6.3,14.7,100,0.00,,SKC,0.00,VWS V14.01,2013-06-05 00:53:00,
2013-06-04 20:55:00,79.7,79.7,29.89,South,179,8.3,14.7,100,0.00,,SKC,0.00,VWS V14.01,2013-06-05 00:55:00,
2013-06-04 20:56:00,79.7,79.7,29.90,South,176,8.4,15.8,100,0.00,,SKC,0.00,VWS V14.01,2013-06-05 00:56:00,
2013-06-04 20:57:00,79.7,79.7,29.90,South,186,9.8,15.8,100,0.00,,SKC,0.00,VWS V14.01,2013-06-05 00:57:00,
2013-06-04 20:59:00,79.5,79.5,29.90,North,359,0.4,15.8,100,0.00,,SKC,0.00,VWS V14.01,2013-06-05 00:59:00,
2013-06-04 21:00:00,79.5,79.4,29.90,South,169,12.4,15.8,100,0.00,,SKC,0.00,VWS V14.01,2013-06-05 01:00:00,
2013-06-04 21:01:00,79.5,79.5,29.90,SW,218,4.5,15.8,100,0.00,,SKC,0.00,VWS V14.01,2013-06-05 01:01:00,
2013-06-04 21:02:00,79.5,79.5,29.90,South,177,3.9,15.8,100,0.00,,SKC,0.00,VWS V14.01,2013-06-05 01:02:00,
2013-06-04 21:03:00,79.5,79.5,29.90,SSW,195,4.2,15.8,100,0.00,,SKC,0.00,VWS V14.01,2013-06-05 01:03:00,
2013-06-04 21:04:00,79.4,79.4,29.90,South,173,9.8,15.8,100,0.00,,SKC,0.00,VWS V14.01,2013-06-05 01:04:00,
2013-06-04 21:05:00,79.5,79.5,29.90,South,177,3.5,15.8,100,0.00,,SKC,0.00,VWS V14.01,2013-06-05 01:05:00,
2013-06-04 21:07:00,79.5,79.5,29.90,South,177,5.5,15.8,100,0.00,,SKC,0.00,VWS V14.01,2013-06-05 01:07:00,
2013-06-04 21:08:00,79.5,79.5,29.90,SSW,197,3.5,15.8,100,0.00,,SKC,0.00,VWS V14.01,2013-06-05 01:08:00,
2013-06-04 21:09:00,79.5,79.5,29.90,SSW,208,3.0,15.8,100,0.00,,SKC,0.00,VWS V14.01,2013-06-05 01:09:00,
2013-06-04 21:10:00,79.4,79.4,29.90,South,173,8.7,15.8,100,0.00,,SKC,0.00,VWS V14.01,2013-06-05 01:10:00,
2013-06-04 21:12:00,79.4,79.4,29.90,SW,217,7.8,15.8,100,0.00,,SKC,0.00,VWS V14.01,2013-06-05 01:12:00,
2013-06-04 21:13:00,79.4,79.4,29.90,South,174,3.9,15.8,100,0.00,,SKC,0.00,VWS V14.01,2013-06-05 01:13:00,
2013-06-04 21:14:00,79.4,79.4,29.90,South,191,6.1,15.8,100,0.00,,SKC,0.00,VWS V14.01,2013-06-05 01:14:00,
2013-06-04 21:15:00,79.4,79.4,29.90,SSW,212,0.7,15.8,100,0.00,,SKC,0.00,VWS V14.01,2013-06-05 01:15:00,
2013-06-04 21:17:00,79.3,79.3,29.90,North,359,0.0,15.8,100,0.00,,SKC,0.00,VWS V14.01,2013-06-05 01:17:00,
2013-06-04 21:18:00,79.3,79.3,29.90,SSW,201,0.0,15.8,100,0.00,,SKC,0.00,VWS V14.01,2013-06-05 01:18:00,
2013-06-04 21:19:00,79.3,79.3,29.90,SSW,201,0.0,15.8,100,0.00,,SKC,0.00,VWS V14.01,2013-06-05 01:19:00,
2013-06-04 21:20:00,79.3,79.3,29.90,SSW,201,0.0,15.8,100,0.00,,SKC,0.00,VWS V14.01,2013-06-05 01:20:00,
2013-06-04 21:22:00,79.3,79.3,29.90,SSW,201,0.0,15.8,100,0.00,,SKC,0.00,VWS V14.01,2013-06-05 01:22:00,
2013-06-04 21:24:00,79.3,79.2,29.90,SSW,201,0.0,15.8,100,0.00,,SKC,0.00,VWS V14.01,2013-06-05 01:24:00,
2013-06-04 21:25:00,79.3,79.3,29.90,SSW,210,0.0,15.8,100,0.00,,SKC,0.00,VWS V14.01,2013-06-05 01:25:00,
2013-06-04 21:27:00,79.4,79.4,29.90,North,359,0.0,15.8,100,0.00,,SKC,0.00,VWS V14.01,2013-06-05 01:27:00,
2013-06-04 21:29:00,79.3,79.3,29.90,South,173,8.0,15.8,100,0.00,,SKC,0.00,VWS V14.01,2013-06-05 01:29:00,
2013-06-04 21:30:00,79.4,79.4,29.90,South,188,6.7,15.8,100,0.00,,SKC,0.00,VWS V14.01,2013-06-05 01:30:00,
2013-06-04 21:32:00,79.3,79.3,29.91,South,180,1.5,15.8,100,0.00,,SKC,0.00,VWS V14.01,2013-06-05 01:32:00,
2013-06-04 21:33:00,79.4,79.4,29.91,SW,235,1.6,15.8,100,0.00,,SKC,0.00,VWS V14.01,2013-06-05 01:33:00,
2013-06-04 21:35:00,79.3,79.3,29.91,SSW,202,9.6,15.8,100,0.00,,SKC,0.00,VWS V14.01,2013-06-05 01:35:00,
2013-06-04 21:37:00,79.3,79.3,29.91,North,359,7.8,15.8,100,0.00,,SKC,0.00,VWS V14.01,2013-06-05 01:37:00,
2013-06-04 21:38:00,79.3,79.3,29.91,North,359,6.5,15.8,100,0.00,,SKC,0.00,VWS V14.01,2013-06-05 01:38:00,
2013-06-04 21:40:00,79.3,79.3,29.90,North,359,8.1,15.8,100,0.00,,SKC,0.00,VWS V14.01,2013-06-05 01:40:00,
2013-06-04 21:42:00,79.3,79.3,29.91,South,184,8.8,15.8,100,0.00,,SKC,0.00,VWS V14.01,2013-06-05 01:42:00,
2013-06-04 21:43:00,79.3,79.3,29.91,SSW,207,10.5,15.8,100,0.00,,SKC,0.00,VWS V14.01,2013-06-05 01:43:00,
2013-06-04 21:45:00,79.2,79.2,29.91,North,359,1.3,15.8,100,0.00,,SKC,0.00,VWS V14.01,2013-06-05 01:45:00,
2013-06-04 21:48:00,79.3,79.3,29.91,South,184,9.6,15.8,100,0.00,,SKC,0.00,VWS V14.01,2013-06-05 01:48:00,
2013-06-04 21:50:00,79.3,79.3,29.92,SSW,195,7.3,15.8,100,0.00,,SKC,0.00,VWS V14.01,2013-06-05 01:50:00,
2013-06-04 21:51:00,79.3,79.3,29.92,SW,222,8.9,15.8,100,0.00,,SKC,0.00,VWS V14.01,2013-06-05 01:51:00,
2013-06-04 21:53:00,79.3,79.3,29.92,SSE,158,7.9,15.8,100,0.00,,SKC,0.00,VWS V14.01,2013-06-05 01:53:00,
2013-06-04 21:55:00,79.3,79.3,29.92,SSW,198,6.2,15.8,100,0.00,,SKC,0.00,VWS V14.01,2013-06-05 01:55:00,
2013-06-04 21:56:00,79.4,79.4,29.92,SW,229,2.2,15.8,100,0.00,,SKC,0.00,VWS V14.01,2013-06-05 01:56:00,
2013-06-04 21:58:00,79.3,79.3,29.92,SW,235,0.0,15.8,100,0.00,,SKC,0.00,VWS V14.01,2013-06-05 01:58:00,
2013-06-04 22:00:00,79.3,79.3,29.92,South,177,0.0,15.8,100,0.00,,SKC,0.00,VWS V14.01,2013-06-05 02:00:00,
2013-06-04 22:01:00,79.3,79.3,29.92,SSW,194,4.8,15.8,100,0.00,,SKC,0.00,VWS V14.01,2013-06-05 02:01:00,
2013-06-04 22:03:00,79.3,79.3,29.93,SW,219,5.2,15.8,100,0.00,,SKC,0.00,VWS V14.01,2013-06-05 02:03:00,
2013-06-04 22:05:00,79.2,79.2,29.93,SSW,198,6.1,15.8,100,0.00,,SKC,0.00,VWS V14.01,2013-06-05 02:05:00,
2013-06-04 22:06:00,79.2,79.2,29.93,South,176,1.2,15.8,100,0.00,,SKC,0.00,VWS V14.01,2013-06-05 02:06:00,
2013-06-04 22:08:00,79.2,79.2,29.93,SW,226,0.0,15.8,100,0.00,,SKC,0.00,VWS V14.01,2013-06-05 02:08:00,
2013-06-04 22:10:00,79.3,79.3,29.93,North,359,4.2,15.8,100,0.00,,SKC,0.00,VWS V14.01,2013-06-05 02:10:00,
2013-06-04 22:11:00,79.3,79.3,29.93,South,174,2.1,15.8,100,0.00,,SKC,0.00,VWS V14.01,2013-06-05 02:11:00,
2013-06-04 22:13:00,79.3,79.3,29.93,South,174,7.3,15.8,100,0.00,,SKC,0.00,VWS V14.01,2013-06-05 02:13:00,
2013-06-04 22:15:00,79.2,79.2,29.93,South,174,5.9,15.8,100,0.00,,SKC,0.00,VWS V14.01,2013-06-05 02:15:00,
2013-06-04 22:16:00,79.2,79.2,29.93,WSW,242,7.1,15.8,100,0.00,,SKC,0.00,VWS V14.01,2013-06-05 02:16:00,
2013-06-04 22:18:00,79.3,79.3,29.93,SSE,162,2.8,15.8,100,0.00,,SKC,0.00,VWS V14.01,2013-06-05 02:18:00,
2013-06-04 22:20:00,79.2,79.2,29.93,SSW,207,4.8,15.8,100,0.00,,SKC,0.00,VWS V14.01,2013-06-05 02:20:00,
2013-06-04 22:21:00,79.2,79.2,29.93,South,180,5.8,15.8,100,0.00,,SKC,0.00,VWS V14.01,2013-06-05 02:21:00,
2013-06-04 22:23:00,79.3,79.3,29.93,SSW,194,3.7,15.8,100,0.00,,SKC,0.00,VWS V14.01,2013-06-05 02:23:00,
2013-06-04 22:24:00,79.3,79.3,29.93,SW,218,4.9,15.8,100,0.00,,SKC,0.00,VWS V14.01,2013-06-05 02:24:00,
2013-06-04 22:25:00,79.2,79.2,29.93,SSW,194,5.0,15.8,100,0.00,,SKC,0.00,VWS V14.01,2013-06-05 02:25:00,
2013-06-04 22:26:00,79.2,79.2,29.93,SSW,193,2.9,15.8,100,0.00,,SKC,0.00,VWS V14.01,2013-06-05 02:26:00,
2013-06-04 22:28:00,79.2,79.2,29.93,SSE,156,7.5,15.8,100,0.00,,SKC,0.00,VWS V14.01,2013-06-05 02:28:00,
2013-06-04 22:29:00,79.2,79.2,29.93,SW,215,4.6,15.8,100,0.00,,SKC,0.00,VWS V14.01,2013-06-05 02:29:00,
2013-06-04 22:31:00,79.2,79.2,29.93,WSW,249,7.6,15.8,100,0.00,,SKC,0.00,VWS V14.01,2013-06-05 02:31:00,
2013-06-04 22:33:00,79.3,79.3,29.93,South,180,0.4,15.8,100,0.00,,SKC,0.00,VWS V14.01,2013-06-05 02:33:00,
2013-06-04 22:34:00,79.3,79.3,29.93,SSE,163,8.7,15.8,100,0.00,,SKC,0.00,VWS V14.01,2013-06-05 02:34:00,
2013-06-04 22:36:00,79.3,79.3,29.94,South,176,5.2,15.8,100,0.00,,SKC,0.00,VWS V14.01,2013-06-05 02:36:00,
2013-06-04 22:38:00,79.3,79.3,29.94,SSE,152,10.1,15.8,100,0.00,,SKC,0.00,VWS V14.01,2013-06-05 02:38:00,
2013-06-04 22:39:00,79.2,79.2,29.94,SSE,160,5.2,15.8,100,0.00,,SKC,0.00,VWS V14.01,2013-06-05 02:39:00,
2013-06-04 22:41:00,79.3,79.3,29.94,SW,236,6.5,15.8,100,0.00,,SKC,0.00,VWS V14.01,2013-06-05 02:41:00,
2013-06-04 22:42:00,79.3,79.3,29.94,South,188,5.2,15.8,100,0.00,,SKC,0.00,VWS V14.01,2013-06-05 02:42:00,
2013-06-04 22:43:00,79.3,79.3,29.94,SSW,207,3.1,15.8,100,0.00,,SKC,0.00,VWS V14.01,2013-06-05 02:43:00,
2013-06-04 22:44:00,79.4,79.4,29.94,South,181,4.7,15.8,100,0.00,,SKC,0.00,VWS V14.01,2013-06-05 02:44:00,
2013-06-04 22:46:00,79.3,79.3,29.94,South,186,7.1,15.8,100,0.00,,SKC,0.00,VWS V14.01,2013-06-05 02:46:00,
2013-06-04 22:47:00,79.3,79.3,29.94,South,181,6.0,15.8,100,0.00,,SKC,0.00,VWS V14.01,2013-06-05 02:47:00,
2013-06-04 22:48:00,79.3,79.3,29.94,SSW,205,4.9,15.8,100,0.00,,SKC,0.00,VWS V14.01,2013-06-05 02:48:00,
2013-06-04 22:49:00,79.4,79.4,29.94,SW,225,5.5,15.8,100,0.00,,SKC,0.00,VWS V14.01,2013-06-05 02:49:00,
2013-06-04 22:51:00,79.4,79.4,29.94,SW,217,1.1,15.8,100,0.00,,SKC,0.00,VWS V14.01,2013-06-05 02:51:00,
2013-06-04 22:52:00,79.4,79.4,29.94,SSW,211,8.8,15.8,100,0.00,,SKC,0.00,VWS V14.01,2013-06-05 02:52:00,
2013-06-04 22:54:00,79.4,79.4,29.94,SSE,162,0.7,15.8,100,0.00,,SKC,0.00,VWS V14.01,2013-06-05 02:54:00,
2013-06-04 22:57:00,79.4,79.4,29.94,SW,226,1.1,15.8,100,0.00,,SKC,0.00,VWS V14.01,2013-06-05 02:57:00,
2013-06-04 22:59:00,79.4,79.4,29.94,SSW,198,0.2,15.8,100,0.00,,SKC,0.00,VWS V14.01,2013-06-05 02:59:00,
2013-06-04 23:02:00,79.4,79.4,29.94,SW,235,2.9,15.8,100,0.00,,SKC,0.00,VWS V14.01,2013-06-05 03:02:00,
2013-06-04 23:04:00,79.4,79.4,29.94,South,170,0.2,15.8,100,0.00,,SKC,0.00,VWS V14.01,2013-06-05 03:04:00,
2013-06-04 23:05:00,79.4,79.4,29.94,South,172,4.3,15.8,100,0.00,,SKC,0.00,VWS V14.01,2013-06-05 03:05:00,
2013-06-04 23:06:00,79.4,79.3,29.94,North,359,7.5,15.8,100,0.00,,SKC,0.00,VWS V14.01,2013-06-05 03:06:00,
2013-06-04 23:07:00,79.4,79.4,29.94,SW,221,3.6,15.8,100,0.00,,SKC,0.00,VWS V14.01,2013-06-05 03:07:00,
2013-06-04 23:08:00,79.3,79.3,29.94,SSW,197,5.3,15.8,100,0.00,,SKC,0.00,VWS V14.01,2013-06-05 03:08:00,
2013-06-04 23:09:00,79.3,79.3,29.94,SSW,200,8.5,15.8,100,0.00,,SKC,0.00,VWS V14.01,2013-06-05 03:09:00,
2013-06-04 23:12:00,79.4,79.4,29.94,South,191,0.0,15.8,100,0.00,,SKC,0.00,VWS V14.01,2013-06-05 03:12:00,
2013-06-04 23:13:00,79.4,79.4,29.94,SW,233,0.0,15.8,100,0.00,,SKC,0.00,VWS V14.01,2013-06-05 03:13:00,
2013-06-04 23:14:00,79.3,79.3,29.94,WSW,238,1.4,15.8,100,0.00,,SKC,0.00,VWS V14.01,2013-06-05 03:14:00,
2013-06-04 23:17:00,79.4,79.4,29.94,SSW,197,4.2,15.8,100,0.00,,SKC,0.00,VWS V14.01,2013-06-05 03:17:00,
2013-06-04 23:18:00,79.4,79.4,29.94,SW,219,6.3,15.8,100,0.00,,SKC,0.00,VWS V14.01,2013-06-05 03:18:00,
2013-06-04 23:19:00,79.5,79.5,29.94,SW,215,0.0,15.8,100,0.00,,SKC,0.00,VWS V14.01,2013-06-05 03:19:00,
2013-06-04 23:22:00,79.4,79.4,29.94,North,359,0.5,15.8,100,0.00,,SKC,0.00,VWS V14.01,2013-06-05 03:22:00,
2013-06-04 23:23:00,79.4,79.4,29.94,North,359,5.2,15.8,100,0.00,,SKC,0.00,VWS V14.01,2013-06-05 03:23:00,
2013-06-04 23:24:00,79.5,79.4,29.94,SSW,200,0.0,15.8,100,0.00,,SKC,0.00,VWS V14.01,2013-06-05 03:24:00,
2013-06-04 23:27:00,79.5,79.5,29.94,SW,229,3.5,15.8,100,0.00,,SKC,0.00,VWS V14.01,2013-06-05 03:27:00,
2013-06-04 23:28:00,79.5,79.5,29.94,SW,217,6.3,15.8,100,0.00,,SKC,0.00,VWS V14.01,2013-06-05 03:28:00,
2013-06-04 23:29:00,79.4,79.4,29.94,South,191,2.0,15.8,100,0.00,,SKC,0.00,VWS V14.01,2013-06-05 03:29:00,
2013-06-04 23:32:00,79.5,79.5,29.94,SSE,162,0.0,15.8,100,0.00,,SKC,0.00,VWS V14.01,2013-06-05 03:32:00,
2013-06-04 23:33:00,79.4,79.4,29.94,SSW,193,6.8,15.8,100,0.00,,SKC,0.00,VWS V14.01,2013-06-05 03:33:00,
2013-06-04 23:34:00,79.5,79.5,29.94,SSW,210,0.0,15.8,100,0.00,,SKC,0.00,VWS V14.01,2013-06-05 03:34:00,
2013-06-04 23:35:00,79.5,79.5,29.94,SW,215,5.8,15.8,100,0.00,,SKC,0.00,VWS V14.01,2013-06-05 03:35:00,
2013-06-04 23:37:00,79.5,79.5,29.94,SSE,160,0.0,15.8,100,0.00,,SKC,0.00,VWS V14.01,2013-06-05 03:37:00,
2013-06-04 23:38:00,79.5,79.5,29.94,SSE,160,0.0,15.8,100,0.00,,SKC,0.00,VWS V14.01,2013-06-05 03:38:00,
2013-06-04 23:40:00,79.4,79.4,29.94,South,190,5.1,15.8,100,0.00,,SKC,0.00,VWS V14.01,2013-06-05 03:40:00,
2013-06-04 23:42:00,79.7,79.7,29.94,North,359,4.5,15.8,100,0.00,,SKC,0.00,VWS V14.01,2013-06-05 03:42:00,
2013-06-04 23:43:00,79.5,79.5,29.94,SSW,205,11.6,15.8,100,0.00,,SKC,0.00,VWS V14.01,2013-06-05 03:43:00,
2013-06-04 23:45:00,79.7,79.7,29.94,North,359,0.4,15.8,100,0.00,,SKC,0.00,VWS V14.01,2013-06-05 03:45:00,
2013-06-04 23:48:00,79.4,79.4,29.94,North,359,0.0,15.8,100,0.00,,SKC,0.00,VWS V14.01,2013-06-05 03:48:00,
2013-06-04 23:50:00,79.4,79.4,29.94,North,359,0.0,15.8,100,0.00,,SKC,0.00,VWS V14.01,2013-06-05 03:50:00,
2013-06-04 23:51:00,79.4,79.4,29.94,SW,233,5.2,15.8,100,0.00,,SKC,0.00,VWS V14.01,2013-06-05 03:51:00,
2013-06-04 23:53:00,79.4,79.4,29.94,SSW,197,0.0,15.8,100,0.00,,SKC,0.00,VWS V14.01,2013-06-05 03:53:00,
2013-06-04 23:55:00,79.4,79.4,29.94,SW,218,8.0,15.8,100,0.00,,SKC,0.00,VWS V14.01,2013-06-05 03:55:00,
2013-06-04 23:56:00,79.4,79.4,29.94,North,359,0.0,15.8,100,0.00,,SKC,0.00,VWS V14.01,2013-06-05 03:56:00,
2013-06-04 23:58:00,79.4,79.4,29.94,North,359,0.0,15.8,100,0.00,,SKC,0.00,VWS V14.01,2013-06-05 03:58:00,
2013-06-04 23:59:00,79.4,79.4,29.94,North,359,1.5,15.8,100,0.00,,SKC,0.00,VWS V14.01,2013-06-05 03:59:00,